Wetterdaten: Samstag, 01.04.2017
Datum Zeit Temp. A. Feuchte A. Luftdruck Regen Wind Richtung Richtung Sonnenschein ET UV Solar Taupunkt Windchill Windben Empfang
01.04.2017 00:00 11,6 C 78 % 1013,1 hPa 0,0 l/m 0,0 km/h (0 Bft) O-NO 59 0 min 0,000 mm 0,0 UV-I 0 W/m 7,9 C 11,6 C 0,0 km/h (0 Bft) 97,87 %
01.04.2017 00:02 11,6 C 78 % 1013,1 hPa 0,0 l/m 0,0 km/h (0 Bft) O-NO 59 0 min 0,000 mm 0,0 UV-I 0 W/m 7,9 C 11,6 C 0,0 km/h (0 Bft) 9,52 %
01.04.2017 00:04 11,6 C 78 % 1013,1 hPa 0,0 l/m 0,0 km/h (0 Bft) O-NO 59 0 min 0,000 mm 0,0 UV-I 0 W/m 7,9 C 11,6 C 0,0 km/h (0 Bft) 94,44 %
01.04.2017 00:06 11,6 C 78 % 1013,1 hPa 0,0 l/m 0,0 km/h (0 Bft) O-NO 59 0 min 0,000 mm 0,0 UV-I 0 W/m 7,9 C 11,6 C 0,0 km/h (0 Bft) 97,87 %
01.04.2017 00:08 11,4 C 78 % 1013,1 hPa 0,0 l/m 0,0 km/h (0 Bft) O-NO 59 0 min 0,000 mm 0,0 UV-I 0 W/m 7,7 C 11,4 C 0,0 km/h (0 Bft) 100,00 %
01.04.2017 00:10 11,3 C 78 % 1013,1 hPa 0,0 l/m 0,0 km/h (0 Bft) O-NO 59 0 min 0,000 mm 0,0 UV-I 0 W/m 7,6 C 11,3 C 0,0 km/h (0 Bft) 100,00 %
01.04.2017 00:12 11,2 C 79 % 1013,0 hPa 0,0 l/m 0,0 km/h (0 Bft) O-NO 59 0 min 0,000 mm 0,0 UV-I 0 W/m 7,7 C 11,2 C 0,0 km/h (0 Bft) 100,00 %
01.04.2017 00:14 11,1 C 79 % 1013,0 hPa 0,0 l/m 0,0 km/h (0 Bft) O-NO 59 0 min 0,000 mm 0,0 UV-I 0 W/m 7,6 C 11,1 C 0,0 km/h (0 Bft) 100,00 %
01.04.2017 00:16 11,0 C 79 % 1013,0 hPa 0,0 l/m 0,0 km/h (0 Bft) O-NO 59 0 min 0,000 mm 0,0 UV-I 0 W/m 7,5 C 11,0 C 0,0 km/h (0 Bft) 100,00 %
01.04.2017 00:18 11,0 C 80 % 1013,0 hPa 0,0 l/m 0,0 km/h (0 Bft) O-NO 59 0 min 0,000 mm 0,0 UV-I 0 W/m 7,7 C 11,0 C 0,0 km/h (0 Bft) 100,00 %
01.04.2017 00:20 10,9 C 80 % 1013,0 hPa 0,0 l/m 0,0 km/h (0 Bft) O-NO 59 0 min 0,000 mm 0,0 UV-I 0 W/m 7,6 C 10,9 C 0,0 km/h (0 Bft) 100,00 %
01.04.2017 00:22 10,8 C 80 % 1013,0 hPa 0,0 l/m 0,0 km/h (0 Bft) O-NO 59 0 min 0,000 mm 0,0 UV-I 0 W/m 7,5 C 10,8 C 0,0 km/h (0 Bft) 97,22 %
01.04.2017 00:24 10,7 C 81 % 1013,0 hPa 0,0 l/m 0,0 km/h (0 Bft) O-NO 59 0 min 0,000 mm 0,0 UV-I 0 W/m 7,6 C 10,7 C 0,0 km/h (0 Bft) 93,62 %
01.04.2017 00:26 10,7 C 81 % 1013,0 hPa 0,0 l/m 0,0 km/h (0 Bft) O-NO 59 0 min 0,000 mm 0,0 UV-I 0 W/m 7,6 C 10,7 C 0,0 km/h (0 Bft) 98,00 %
01.04.2017 00:28 10,7 C 81 % 1013,1 hPa 0,0 l/m 3,3 km/h (1 Bft) O-SO 116 0 min 0,000 mm 0,0 UV-I 0 W/m 7,6 C 10,7 C 4,8 km/h (1 Bft) 97,87 %
01.04.2017 00:30 10,6 C 81 % 1013,1 hPa 0,0 l/m 3,4 km/h (1 Bft) O-SO 116 0 min 0,000 mm 0,0 UV-I 0 W/m 7,5 C 10,6 C 4,8 km/h (1 Bft) 95,74 %
01.04.2017 00:32 10,5 C 81 % 1013,1 hPa 0,0 l/m 4,3 km/h (1 Bft) O-SO 116 0 min 0,000 mm 0,0 UV-I 0 W/m 7,4 C 10,5 C 4,8 km/h (1 Bft) 100,00 %
01.04.2017 00:34 10,3 C 82 % 1013,1 hPa 0,0 l/m 4,1 km/h (1 Bft) O-SO 116 0 min 0,000 mm 0,0 UV-I 0 W/m 7,4 C 10,3 C 4,8 km/h (1 Bft) 100,00 %
01.04.2017 00:36 10,3 C 83 % 1013,0 hPa 0,0 l/m 3,5 km/h (1 Bft) O-SO 116 0 min 0,000 mm 0,0 UV-I 0 W/m 7,5 C 10,3 C 4,8 km/h (1 Bft) 100,00 %
01.04.2017 00:38 10,3 C 82 % 1013,0 hPa 0,0 l/m 3,7 km/h (1 Bft) O-SO 116 0 min 0,000 mm 0,0 UV-I 0 W/m 7,4 C 10,3 C 4,8 km/h (1 Bft) 100,00 %
01.04.2017 00:40 10,2 C 83 % 1013,0 hPa 0,0 l/m 3,4 km/h (1 Bft) O-SO 116 0 min 0,000 mm 0,0 UV-I 0 W/m 7,4 C 10,2 C 4,8 km/h (1 Bft) 100,00 %
01.04.2017 00:42 10,2 C 83 % 1013,1 hPa 0,0 l/m 3,2 km/h (1 Bft) O-SO 116 0 min 0,000 mm 0,0 UV-I 0 W/m 7,4 C 10,2 C 4,8 km/h (1 Bft) 100,00 %
01.04.2017 00:44 10,2 C 83 % 1013,1 hPa 0,0 l/m 3,3 km/h (1 Bft) O-SO 116 0 min 0,000 mm 0,0 UV-I 0 W/m 7,4 C 10,2 C 4,8 km/h (1 Bft) 96,00 %
01.04.2017 00:46 10,2 C 83 % 1013,0 hPa 0,0 l/m 3,6 km/h (1 Bft) O-SO 116 0 min 0,000 mm 0,0 UV-I 0 W/m 7,4 C 10,2 C 4,8 km/h (1 Bft) 100,00 %
01.04.2017 00:48 10,2 C 83 % 1013,0 hPa 0,0 l/m 4,1 km/h (1 Bft) SO 127 0 min 0,000 mm 0,0 UV-I 0 W/m 7,4 C 10,2 C 6,4 km/h (2 Bft) 95,74 %
01.04.2017 00:50 10,3 C 83 % 1013,0 hPa 0,0 l/m 4,7 km/h (1 Bft) S 189 0 min 0,000 mm 0,0 UV-I 0 W/m 7,5 C 10,3 C 6,4 km/h (2 Bft) 100,00 %
01.04.2017 00:52 10,3 C 83 % 1013,0 hPa 0,0 l/m 4,4 km/h (1 Bft) S 189 0 min 0,000 mm 0,0 UV-I 0 W/m 7,5 C 10,3 C 6,4 km/h (2 Bft) 100,00 %
01.04.2017 00:54 10,3 C 83 % 1013,0 hPa 0,0 l/m 2,2 km/h (1 Bft) S 189 0 min 0,000 mm 0,0 UV-I 0 W/m 7,5 C 10,3 C 4,8 km/h (1 Bft) 95,74 %
01.04.2017 00:56 10,1 C 83 % 1013,1 hPa 0,0 l/m 2,7 km/h (1 Bft) S 189 0 min 0,000 mm 0,0 UV-I 0 W/m 7,3 C 10,1 C 4,8 km/h (1 Bft) 100,00 %
01.04.2017 00:58 10,1 C 84 % 1013,0 hPa 0,0 l/m 3,4 km/h (1 Bft) S 188 0 min 0,000 mm 0,0 UV-I 0 W/m 7,5 C 10,1 C 4,8 km/h (1 Bft) 97,87 %
01.04.2017 01:00 9,9 C 84 % 1013,0 hPa 0,0 l/m 3,4 km/h (1 Bft) S 189 0 min 0,000 mm 0,0 UV-I 0 W/m 7,3 C 9,9 C 4,8 km/h (1 Bft) 97,87 %
01.04.2017 01:02 9,9 C 84 % 1013,0 hPa 0,0 l/m 3,2 km/h (1 Bft) S 189 0 min 0,000 mm 0,0 UV-I 0 W/m 7,3 C 9,9 C 4,8 km/h (1 Bft) 100,00 %
01.04.2017 01:04 9,9 C 84 % 1012,9 hPa 0,0 l/m 3,8 km/h (1 Bft) S 189 0 min 0,000 mm 0,0 UV-I 0 W/m 7,3 C 9,9 C 4,8 km/h (1 Bft) 100,00 %
01.04.2017 01:06 9,9 C 84 % 1012,9 hPa 0,0 l/m 3,1 km/h (1 Bft) S 189 0 min 0,000 mm 0,0 UV-I 0 W/m 7,3 C 9,9 C 4,8 km/h (1 Bft) 97,87 %
01.04.2017 01:08 9,8 C 85 % 1013,0 hPa 0,0 l/m 2,5 km/h (1 Bft) S 188 0 min 0,000 mm 0,0 UV-I 0 W/m 7,4 C 9,8 C 3,2 km/h (1 Bft) 100,00 %
01.04.2017 01:10 9,8 C 85 % 1012,9 hPa 0,0 l/m 1,7 km/h (1 Bft) S 188 0 min 0,000 mm 0,0 UV-I 0 W/m 7,4 C 9,8 C 3,2 km/h (1 Bft) 97,87 %
01.04.2017 01:12 9,8 C 85 % 1012,9 hPa 0,0 l/m 1,7 km/h (1 Bft) S 188 0 min 0,000 mm 0,0 UV-I 0 W/m 7,4 C 9,8 C 3,2 km/h (1 Bft) 100,00 %
01.04.2017 01:14 9,8 C 85 % 1012,9 hPa 0,0 l/m 1,2 km/h (1 Bft) S 188 0 min 0,000 mm 0,0 UV-I 0 W/m 7,4 C 9,8 C 3,2 km/h (1 Bft) 97,87 %
01.04.2017 01:16 9,8 C 85 % 1012,9 hPa 0,0 l/m 3,1 km/h (1 Bft) S 188 0 min 0,000 mm 0,0 UV-I 0 W/m 7,4 C 9,8 C 4,8 km/h (1 Bft) 100,00 %
01.04.2017 01:18 9,7 C 84 % 1012,9 hPa 0,0 l/m 2,7 km/h (1 Bft) S 188 0 min 0,000 mm 0,0 UV-I 0 W/m 7,1 C 9,7 C 4,8 km/h (1 Bft) 100,00 %
01.04.2017 01:20 9,7 C 85 % 1012,9 hPa 0,0 l/m 0,4 km/h (0 Bft) S 188 0 min 0,000 mm 0,0 UV-I 0 W/m 7,3 C 9,7 C 3,2 km/h (1 Bft) 100,00 %
01.04.2017 01:22 9,7 C 85 % 1012,8 hPa 0,0 l/m 0,5 km/h (0 Bft) S 188 0 min 0,000 mm 0,0 UV-I 0 W/m 7,3 C 9,7 C 1,6 km/h (1 Bft) 100,00 %
01.04.2017 01:24 9,8 C 85 % 1012,9 hPa 0,0 l/m 2,5 km/h (1 Bft) S 188 0 min 0,000 mm 0,0 UV-I 0 W/m 7,4 C 9,8 C 3,2 km/h (1 Bft) 95,74 %
01.04.2017 01:26 9,8 C 85 % 1012,8 hPa 0,0 l/m 2,9 km/h (1 Bft) S 188 0 min 0,000 mm 0,0 UV-I 0 W/m 7,4 C 9,8 C 4,8 km/h (1 Bft) 97,87 %
01.04.2017 01:28 9,7 C 84 % 1012,9 hPa 0,0 l/m 2,1 km/h (1 Bft) S 188 0 min 0,000 mm 0,0 UV-I 0 W/m 7,1 C 9,7 C 3,2 km/h (1 Bft) 100,00 %
01.04.2017 01:30 9,7 C 85 % 1012,8 hPa 0,0 l/m 3,0 km/h (1 Bft) S 189 0 min 0,000 mm 0,0 UV-I 0 W/m 7,3 C 9,7 C 3,2 km/h (1 Bft) 100,00 %
01.04.2017 01:32 9,6 C 85 % 1012,8 hPa 0,0 l/m 2,9 km/h (1 Bft) S 188 0 min 0,000 mm 0,0 UV-I 0 W/m 7,2 C 9,6 C 3,2 km/h (1 Bft) 100,00 %
01.04.2017 01:34 9,6 C 85 % 1012,8 hPa 0,0 l/m 2,6 km/h (1 Bft) S 188 0 min 0,000 mm 0,0 UV-I 0 W/m 7,2 C 9,6 C 3,2 km/h (1 Bft) 97,87 %
01.04.2017 01:36 9,6 C 85 % 1012,8 hPa 0,0 l/m 2,1 km/h (1 Bft) S 188 0 min 0,000 mm 0,0 UV-I 0 W/m 7,2 C 9,6 C 3,2 km/h (1 Bft) 97,87 %
01.04.2017 01:38 9,4 C 85 % 1012,8 hPa 0,0 l/m 1,1 km/h (1 Bft) S 188 0 min 0,000 mm 0,0 UV-I 0 W/m 7,0 C 9,4 C 3,2 km/h (1 Bft) 100,00 %
01.04.2017 01:40 9,2 C 85 % 1012,8 hPa 0,0 l/m 2,2 km/h (1 Bft) S 188 0 min 0,000 mm 0,0 UV-I 0 W/m 6,8 C 9,2 C 3,2 km/h (1 Bft) 97,87 %
01.04.2017 01:42 9,2 C 86 % 1012,7 hPa 0,0 l/m 3,2 km/h (1 Bft) S 188 0 min 0,000 mm 0,0 UV-I 0 W/m 7,0 C 9,2 C 4,8 km/h (1 Bft) 100,00 %
01.04.2017 01:44 9,3 C 86 % 1012,7 hPa 0,0 l/m 3,4 km/h (1 Bft) S 188 0 min 0,000 mm 0,0 UV-I 0 W/m 7,1 C 9,3 C 4,8 km/h (1 Bft) 100,00 %
01.04.2017 01:46 9,3 C 86 % 1012,7 hPa 0,0 l/m 4,0 km/h (1 Bft) S 188 0 min 0,000 mm 0,0 UV-I 0 W/m 7,1 C 9,3 C 4,8 km/h (1 Bft) 100,00 %
01.04.2017 01:48 9,3 C 86 % 1012,7 hPa 0,0 l/m 4,2 km/h (1 Bft) S 188 0 min 0,000 mm 0,0 UV-I 0 W/m 7,1 C 9,3 C 4,8 km/h (1 Bft) 100,00 %
01.04.2017 01:50 9,3 C 86 % 1012,7 hPa 0,0 l/m 3,7 km/h (1 Bft) S 188 0 min 0,000 mm 0,0 UV-I 0 W/m 7,1 C 9,3 C 4,8 km/h (1 Bft) 100,00 %
01.04.2017 01:52 9,2 C 86 % 1012,7 hPa 0,0 l/m 3,2 km/h (1 Bft) S 188 0 min 0,000 mm 0,0 UV-I 0 W/m 7,0 C 9,2 C 4,8 km/h (1 Bft) 100,00 %
01.04.2017 01:54 9,2 C 87 % 1012,7 hPa 0,0 l/m 3,5 km/h (1 Bft) S 188 0 min 0,000 mm 0,0 UV-I 0 W/m 7,2 C 9,2 C 4,8 km/h (1 Bft) 100,00 %
01.04.2017 01:56 9,1 C 87 % 1012,7 hPa 0,0 l/m 4,1 km/h (1 Bft) S 188 0 min 0,000 mm 0,0 UV-I 0 W/m 7,1 C 9,1 C 4,8 km/h (1 Bft) 98,00 %
01.04.2017 01:58 9,1 C 87 % 1012,7 hPa 0,0 l/m 3,8 km/h (1 Bft) S 188 0 min 0,000 mm 0,0 UV-I 0 W/m 7,1 C 9,1 C 4,8 km/h (1 Bft) 100,00 %
01.04.2017 02:00 9,1 C 87 % 1012,6 hPa 0,0 l/m 3,4 km/h (1 Bft) S 188 0 min 0,000 mm 0,0 UV-I 0 W/m 7,1 C 9,1 C 4,8 km/h (1 Bft) 100,00 %
01.04.2017 02:02 9,2 C 87 % 1012,6 hPa 0,0 l/m 2,8 km/h (1 Bft) S 188 0 min 0,000 mm 0,0 UV-I 0 W/m 7,2 C 9,2 C 4,8 km/h (1 Bft) 93,62 %
01.04.2017 02:04 9,2 C 87 % 1012,6 hPa 0,0 l/m 3,1 km/h (1 Bft) S 188 0 min 0,000 mm 0,0 UV-I 0 W/m 7,2 C 9,2 C 4,8 km/h (1 Bft) 96,00 %
01.04.2017 02:06 9,2 C 86 % 1012,6 hPa 0,0 l/m 2,8 km/h (1 Bft) S 188 0 min 0,000 mm 0,0 UV-I 0 W/m 7,0 C 9,2 C 3,2 km/h (1 Bft) 97,87 %
01.04.2017 02:08 9,2 C 87 % 1012,5 hPa 0,0 l/m 2,1 km/h (1 Bft) S 188 0 min 0,000 mm 0,0 UV-I 0 W/m 7,2 C 9,2 C 3,2 km/h (1 Bft) 95,74 %
01.04.2017 02:10 9,2 C 87 % 1012,5 hPa 0,0 l/m 1,6 km/h (1 Bft) S 188 0 min 0,000 mm 0,0 UV-I 0 W/m 7,2 C 9,2 C 3,2 km/h (1 Bft) 97,87 %
01.04.2017 02:12 9,2 C 87 % 1012,4 hPa 0,0 l/m 1,1 km/h (1 Bft) S 188 0 min 0,000 mm 0,0 UV-I 0 W/m 7,2 C 9,2 C 3,2 km/h (1 Bft) 98,00 %
01.04.2017 02:14 9,1 C 86 % 1012,4 hPa 0,0 l/m 0,0 km/h (0 Bft) S 188 0 min 0,000 mm 0,0 UV-I 0 W/m 6,9 C 9,1 C 0,0 km/h (0 Bft) 95,74 %
01.04.2017 02:16 9,0 C 87 % 1012,3 hPa 0,0 l/m 0,0 km/h (0 Bft) S 188 0 min 0,000 mm 0,0 UV-I 0 W/m 7,0 C 9,0 C 0,0 km/h (0 Bft) 97,87 %
01.04.2017 02:18 8,9 C 87 % 1012,3 hPa 0,0 l/m 1,6 km/h (1 Bft) S 188 0 min 0,000 mm 0,0 UV-I 0 W/m 6,9 C 8,9 C 3,2 km/h (1 Bft) 97,37 %
01.04.2017 02:20 8,9 C 87 % 1012,3 hPa 0,0 l/m 2,0 km/h (1 Bft) S 188 0 min 0,000 mm 0,0 UV-I 0 W/m 6,9 C 8,9 C 3,2 km/h (1 Bft) 95,83 %
01.04.2017 02:22 9,0 C 87 % 1012,4 hPa 0,0 l/m 1,2 km/h (1 Bft) S 188 0 min 0,000 mm 0,0 UV-I 0 W/m 7,0 C 9,0 C 3,2 km/h (1 Bft) 97,87 %
01.04.2017 02:24 9,1 C 87 % 1012,4 hPa 0,0 l/m 2,0 km/h (1 Bft) S 188 0 min 0,000 mm 0,0 UV-I 0 W/m 7,1 C 9,1 C 3,2 km/h (1 Bft) 97,87 %
01.04.2017 02:26 8,9 C 86 % 1012,3 hPa 0,0 l/m 1,9 km/h (1 Bft) S 188 0 min 0,000 mm 0,0 UV-I 0 W/m 6,7 C 8,9 C 3,2 km/h (1 Bft) 95,74 %
01.04.2017 02:28 8,8 C 87 % 1012,3 hPa 0,0 l/m 2,3 km/h (1 Bft) S 188 0 min 0,000 mm 0,0 UV-I 0 W/m 6,8 C 8,8 C 3,2 km/h (1 Bft) 98,00 %
01.04.2017 02:30 8,7 C 87 % 1012,3 hPa 0,0 l/m 0,9 km/h (0 Bft) S 188 0 min 0,000 mm 0,0 UV-I 0 W/m 6,7 C 8,7 C 3,2 km/h (1 Bft) 98,04 %
01.04.2017 02:32 8,7 C 87 % 1012,3 hPa 0,0 l/m 1,0 km/h (0 Bft) S 188 0 min 0,000 mm 0,0 UV-I 0 W/m 6,7 C 8,7 C 1,6 km/h (1 Bft) 95,12 %
01.04.2017 02:34 8,7 C 87 % 1012,3 hPa 0,0 l/m 0,9 km/h (0 Bft) S 188 0 min 0,000 mm 0,0 UV-I 0 W/m 6,7 C 8,7 C 1,6 km/h (1 Bft) 98,00 %
01.04.2017 02:36 8,7 C 87 % 1012,3 hPa 0,0 l/m 0,0 km/h (0 Bft) S 188 0 min 0,000 mm 0,0 UV-I 0 W/m 6,7 C 8,7 C 0,0 km/h (0 Bft) 97,87 %
01.04.2017 02:38 8,6 C 88 % 1012,3 hPa 0,0 l/m 0,0 km/h (0 Bft) S 188 0 min 0,000 mm 0,0 UV-I 0 W/m 6,7 C 8,6 C 0,0 km/h (0 Bft) 97,87 %
01.04.2017 02:40 8,6 C 88 % 1012,3 hPa 0,0 l/m 0,0 km/h (0 Bft) S 188 0 min 0,000 mm 0,0 UV-I 0 W/m 6,7 C 8,6 C 0,0 km/h (0 Bft) 97,87 %
01.04.2017 02:42 8,5 C 88 % 1012,3 hPa 0,0 l/m 0,2 km/h (0 Bft) S 188 0 min 0,000 mm 0,0 UV-I 0 W/m 6,6 C 8,5 C 1,6 km/h (1 Bft) 97,56 %
01.04.2017 02:44 8,6 C 88 % 1012,3 hPa 0,0 l/m 0,4 km/h (0 Bft) S 188 0 min 0,000 mm 0,0 UV-I 0 W/m 6,7 C 8,6 C 1,6 km/h (1 Bft) 100,00 %
01.04.2017 02:46 8,5 C 88 % 1012,3 hPa 0,0 l/m 0,8 km/h (0 Bft) S 188 0 min 0,000 mm 0,0 UV-I 0 W/m 6,6 C 8,5 C 3,2 km/h (1 Bft) 95,74 %
01.04.2017 02:48 8,6 C 89 % 1012,2 hPa 0,0 l/m 2,6 km/h (1 Bft) S 188 0 min 0,000 mm 0,0 UV-I 0 W/m 6,9 C 8,6 C 3,2 km/h (1 Bft) 95,74 %
01.04.2017 02:50 8,6 C 89 % 1012,2 hPa 0,0 l/m 2,4 km/h (1 Bft) S 188 0 min 0,000 mm 0,0 UV-I 0 W/m 6,9 C 8,6 C 3,2 km/h (1 Bft) 96,00 %
01.04.2017 02:52 8,6 C 89 % 1012,2 hPa 0,0 l/m 2,0 km/h (1 Bft) S 188 0 min 0,000 mm 0,0 UV-I 0 W/m 6,9 C 8,6 C 3,2 km/h (1 Bft) 97,87 %
01.04.2017 02:54 8,6 C 88 % 1012,2 hPa 0,0 l/m 2,4 km/h (1 Bft) S 188 0 min 0,000 mm 0,0 UV-I 0 W/m 6,7 C 8,6 C 3,2 km/h (1 Bft) 97,87 %
01.04.2017 02:56 8,5 C 88 % 1012,2 hPa 0,0 l/m 3,1 km/h (1 Bft) S 188 0 min 0,000 mm 0,0 UV-I 0 W/m 6,6 C 8,5 C 4,8 km/h (1 Bft) 98,00 %
01.04.2017 02:58 8,4 C 89 % 1012,2 hPa 0,0 l/m 3,6 km/h (1 Bft) S 188 0 min 0,000 mm 0,0 UV-I 0 W/m 6,7 C 8,4 C 4,8 km/h (1 Bft) 98,00 %
01.04.2017 03:00 8,3 C 89 % 1012,2 hPa 0,0 l/m 4,0 km/h (1 Bft) S 188 0 min 0,000 mm 0,0 UV-I 0 W/m 6,6 C 8,3 C 4,8 km/h (1 Bft) 97,22 %
01.04.2017 03:02 8,3 C 89 % 1012,2 hPa 0,0 l/m 4,1 km/h (1 Bft) S 188 0 min 0,000 mm 0,0 UV-I 0 W/m 6,6 C 8,3 C 4,8 km/h (1 Bft) 97,87 %
01.04.2017 03:04 8,3 C 89 % 1012,2 hPa 0,0 l/m 3,5 km/h (1 Bft) S 188 0 min 0,000 mm 0,0 UV-I 0 W/m 6,6 C 8,3 C 4,8 km/h (1 Bft) 98,11 %
01.04.2017 03:06 8,2 C 88 % 1012,2 hPa 0,0 l/m 3,2 km/h (1 Bft) S 188 0 min 0,000 mm 0,0 UV-I 0 W/m 6,3 C 8,2 C 4,8 km/h (1 Bft) 95,83 %
01.04.2017 03:08 8,1 C 89 % 1012,2 hPa 0,0 l/m 4,5 km/h (1 Bft) S 189 0 min 0,000 mm 0,0 UV-I 0 W/m 6,4 C 8,1 C 4,8 km/h (1 Bft) 94,00 %
01.04.2017 03:10 8,0 C 89 % 1012,2 hPa 0,0 l/m 4,4 km/h (1 Bft) S 188 0 min 0,000 mm 0,0 UV-I 0 W/m 6,3 C 8,0 C 6,4 km/h (2 Bft) 93,62 %
01.04.2017 03:12 8,1 C 89 % 1012,2 hPa 0,0 l/m 4,5 km/h (1 Bft) S 188 0 min 0,000 mm 0,0 UV-I 0 W/m 6,4 C 8,1 C 6,4 km/h (2 Bft) 97,87 %
01.04.2017 03:14 8,0 C 90 % 1012,2 hPa 0,0 l/m 3,4 km/h (1 Bft) S 188 0 min 0,000 mm 0,0 UV-I 0 W/m 6,5 C 8,0 C 4,8 km/h (1 Bft) 97,37 %
01.04.2017 03:16 8,0 C 90 % 1012,1 hPa 0,0 l/m 2,8 km/h (1 Bft) S 188 0 min 0,000 mm 0,0 UV-I 0 W/m 6,5 C 8,0 C 4,8 km/h (1 Bft) 97,92 %
01.04.2017 03:18 8,0 C 90 % 1012,1 hPa 0,0 l/m 2,3 km/h (1 Bft) S 188 0 min 0,000 mm 0,0 UV-I 0 W/m 6,5 C 8,0 C 3,2 km/h (1 Bft) 97,87 %
01.04.2017 03:20 8,1 C 90 % 1012,1 hPa 0,0 l/m 2,9 km/h (1 Bft) S 188 0 min 0,000 mm 0,0 UV-I 0 W/m 6,6 C 8,1 C 3,2 km/h (1 Bft) 93,62 %
01.04.2017 03:22 8,1 C 90 % 1012,0 hPa 0,0 l/m 2,9 km/h (1 Bft) S 188 0 min 0,000 mm 0,0 UV-I 0 W/m 6,6 C 8,1 C 3,2 km/h (1 Bft) 95,74 %
01.04.2017 03:24 8,2 C 90 % 1012,0 hPa 0,0 l/m 2,1 km/h (1 Bft) S 189 0 min 0,000 mm 0,0 UV-I 0 W/m 6,7 C 8,2 C 3,2 km/h (1 Bft) 94,00 %
01.04.2017 03:26 8,2 C 90 % 1012,0 hPa 0,0 l/m 0,5 km/h (0 Bft) S 188 0 min 0,000 mm 0,0 UV-I 0 W/m 6,7 C 8,2 C 3,2 km/h (1 Bft) 97,22 %
01.04.2017 03:28 8,2 C 90 % 1012,0 hPa 0,0 l/m 1,4 km/h (1 Bft) S 188 0 min 0,000 mm 0,0 UV-I 0 W/m 6,7 C 8,2 C 3,2 km/h (1 Bft) 98,11 %
01.04.2017 03:30 8,3 C 90 % 1012,0 hPa 0,0 l/m 0,0 km/h (0 Bft) S 188 0 min 0,000 mm 0,0 UV-I 0 W/m 6,8 C 8,3 C 0,0 km/h (0 Bft) 97,87 %
01.04.2017 03:32 8,3 C 90 % 1012,0 hPa 0,0 l/m 0,3 km/h (0 Bft) S 188 0 min 0,000 mm 0,0 UV-I 0 W/m 6,8 C 8,3 C 1,6 km/h (1 Bft) 97,87 %
01.04.2017 03:34 8,3 C 90 % 1012,0 hPa 0,0 l/m 0,4 km/h (0 Bft) S 188 0 min 0,000 mm 0,0 UV-I 0 W/m 6,8 C 8,3 C 3,2 km/h (1 Bft) 95,74 %
01.04.2017 03:36 8,3 C 90 % 1011,9 hPa 0,0 l/m 2,7 km/h (1 Bft) S 188 0 min 0,000 mm 0,0 UV-I 0 W/m 6,8 C 8,3 C 3,2 km/h (1 Bft) 98,04 %
01.04.2017 03:38 8,3 C 90 % 1011,9 hPa 0,0 l/m 3,3 km/h (1 Bft) S 188 0 min 0,000 mm 0,0 UV-I 0 W/m 6,8 C 8,3 C 4,8 km/h (1 Bft) 97,87 %
01.04.2017 03:40 8,3 C 89 % 1011,9 hPa 0,0 l/m 2,7 km/h (1 Bft) S 188 0 min 0,000 mm 0,0 UV-I 0 W/m 6,6 C 8,3 C 3,2 km/h (1 Bft) 97,87 %
01.04.2017 03:42 8,2 C 89 % 1011,9 hPa 0,0 l/m 3,8 km/h (1 Bft) S 188 0 min 0,000 mm 0,0 UV-I 0 W/m 6,5 C 8,2 C 4,8 km/h (1 Bft) 97,87 %
01.04.2017 03:44 8,1 C 89 % 1011,9 hPa 0,0 l/m 3,7 km/h (1 Bft) S 188 0 min 0,000 mm 0,0 UV-I 0 W/m 6,4 C 8,1 C 4,8 km/h (1 Bft) 95,83 %
01.04.2017 03:46 8,1 C 90 % 1011,9 hPa 0,0 l/m 4,6 km/h (1 Bft) S 189 0 min 0,000 mm 0,0 UV-I 0 W/m 6,6 C 8,1 C 6,4 km/h (2 Bft) 95,74 %
01.04.2017 03:48 8,0 C 89 % 1011,8 hPa 0,0 l/m 2,8 km/h (1 Bft) S 188 0 min 0,000 mm 0,0 UV-I 0 W/m 6,3 C 8,0 C 4,8 km/h (1 Bft) 97,87 %
01.04.2017 03:50 8,1 C 91 % 1011,8 hPa 0,0 l/m 1,3 km/h (1 Bft) S 188 0 min 0,000 mm 0,0 UV-I 0 W/m 6,7 C 8,1 C 3,2 km/h (1 Bft) 97,87 %
01.04.2017 03:52 8,2 C 91 % 1011,8 hPa 0,0 l/m 0,3 km/h (0 Bft) S 188 0 min 0,000 mm 0,0 UV-I 0 W/m 6,8 C 8,2 C 1,6 km/h (1 Bft) 95,74 %
01.04.2017 03:54 8,2 C 90 % 1011,8 hPa 0,0 l/m 0,0 km/h (0 Bft) S 188 0 min 0,000 mm 0,0 UV-I 0 W/m 6,7 C 8,2 C 0,0 km/h (0 Bft) 97,83 %
01.04.2017 03:56 8,2 C 90 % 1011,8 hPa 0,0 l/m 0,0 km/h (0 Bft) S 188 0 min 0,000 mm 0,0 UV-I 0 W/m 6,7 C 8,2 C 0,0 km/h (0 Bft) 97,87 %
01.04.2017 03:58 8,2 C 90 % 1011,8 hPa 0,0 l/m 0,8 km/h (0 Bft) S 188 0 min 0,000 mm 0,0 UV-I 0 W/m 6,7 C 8,2 C 3,2 km/h (1 Bft) 100,00 %
01.04.2017 04:00 8,2 C 90 % 1011,8 hPa 0,0 l/m 3,7 km/h (1 Bft) S 188 0 min 0,000 mm 0,0 UV-I 0 W/m 6,7 C 8,2 C 4,8 km/h (1 Bft) 100,00 %
01.04.2017 04:02 8,1 C 90 % 1011,8 hPa 0,0 l/m 3,3 km/h (1 Bft) S 188 0 min 0,000 mm 0,0 UV-I 0 W/m 6,6 C 8,1 C 4,8 km/h (1 Bft) 95,24 %
01.04.2017 04:04 8,1 C 90 % 1011,8 hPa 0,0 l/m 2,7 km/h (1 Bft) S 188 0 min 0,000 mm 0,0 UV-I 0 W/m 6,6 C 8,1 C 4,8 km/h (1 Bft) 100,00 %
01.04.2017 04:06 8,1 C 90 % 1011,7 hPa 0,0 l/m 2,1 km/h (1 Bft) S 188 0 min 0,000 mm 0,0 UV-I 0 W/m 6,6 C 8,1 C 3,2 km/h (1 Bft) 100,00 %
01.04.2017 04:08 8,1 C 90 % 1011,8 hPa 0,0 l/m 2,4 km/h (1 Bft) S 189 0 min 0,000 mm 0,0 UV-I 0 W/m 6,6 C 8,1 C 3,2 km/h (1 Bft) 100,00 %
01.04.2017 04:10 8,1 C 90 % 1011,8 hPa 0,0 l/m 3,9 km/h (1 Bft) S 188 0 min 0,000 mm 0,0 UV-I 0 W/m 6,6 C 8,1 C 4,8 km/h (1 Bft) 98,00 %
01.04.2017 04:12 7,8 C 89 % 1011,8 hPa 0,0 l/m 6,0 km/h (2 Bft) S 189 0 min 0,000 mm 0,0 UV-I 0 W/m 6,1 C 7,8 C 6,4 km/h (2 Bft) 100,00 %
01.04.2017 04:14 7,6 C 90 % 1011,8 hPa 0,0 l/m 5,0 km/h (1 Bft) S 189 0 min 0,000 mm 0,0 UV-I 0 W/m 6,1 C 7,6 C 6,4 km/h (2 Bft) 97,87 %
01.04.2017 04:16 7,4 C 90 % 1011,8 hPa 0,0 l/m 3,3 km/h (1 Bft) S 189 0 min 0,000 mm 0,0 UV-I 0 W/m 5,9 C 7,4 C 4,8 km/h (1 Bft) 100,00 %
01.04.2017 04:18 7,3 C 90 % 1011,8 hPa 0,0 l/m 1,7 km/h (1 Bft) S 189 0 min 0,000 mm 0,0 UV-I 0 W/m 5,8 C 7,3 C 3,2 km/h (1 Bft) 98,00 %
01.04.2017 04:20 7,2 C 91 % 1011,7 hPa 0,0 l/m 0,0 km/h (0 Bft) S 189 0 min 0,000 mm 0,0 UV-I 0 W/m 5,8 C 7,2 C 0,0 km/h (0 Bft) 97,87 %
01.04.2017 04:22 7,3 C 92 % 1011,6 hPa 0,0 l/m 0,0 km/h (0 Bft) S 189 0 min 0,000 mm 0,0 UV-I 0 W/m 6,1 C 7,3 C 0,0 km/h (0 Bft) 95,74 %
01.04.2017 04:24 7,4 C 92 % 1011,6 hPa 0,0 l/m 0,0 km/h (0 Bft) S 189 0 min 0,000 mm 0,0 UV-I 0 W/m 6,2 C 7,4 C 0,0 km/h (0 Bft) 95,74 %
01.04.2017 04:26 7,6 C 92 % 1011,6 hPa 0,0 l/m 0,0 km/h (0 Bft) S 189 0 min 0,000 mm 0,0 UV-I 0 W/m 6,4 C 7,6 C 0,0 km/h (0 Bft) 95,83 %
01.04.2017 04:28 7,7 C 92 % 1011,6 hPa 0,0 l/m 2,0 km/h (1 Bft) S 189 0 min 0,000 mm 0,0 UV-I 0 W/m 6,5 C 7,7 C 4,8 km/h (1 Bft) 97,87 %
01.04.2017 04:30 7,7 C 91 % 1011,6 hPa 0,0 l/m 4,0 km/h (1 Bft) S 189 0 min 0,000 mm 0,0 UV-I 0 W/m 6,3 C 7,7 C 4,8 km/h (1 Bft) 97,87 %
01.04.2017 04:32 7,6 C 91 % 1011,6 hPa 0,0 l/m 4,7 km/h (1 Bft) S 189 0 min 0,000 mm 0,0 UV-I 0 W/m 6,2 C 7,6 C 6,4 km/h (2 Bft) 97,37 %
01.04.2017 04:34 7,4 C 91 % 1011,6 hPa 0,0 l/m 4,6 km/h (1 Bft) S 189 0 min 0,000 mm 0,0 UV-I 0 W/m 6,0 C 7,4 C 6,4 km/h (2 Bft) 95,74 %
01.04.2017 04:36 7,4 C 91 % 1011,6 hPa 0,0 l/m 5,4 km/h (1 Bft) S 189 0 min 0,000 mm 0,0 UV-I 0 W/m 6,0 C 7,4 C 6,4 km/h (2 Bft) 98,00 %
01.04.2017 04:38 7,3 C 91 % 1011,6 hPa 0,0 l/m 1,2 km/h (1 Bft) S 189 0 min 0,000 mm 0,0 UV-I 0 W/m 5,9 C 7,3 C 4,8 km/h (1 Bft) 97,87 %
01.04.2017 04:40 7,2 C 91 % 1011,6 hPa 0,0 l/m 1,3 km/h (1 Bft) S 189 0 min 0,000 mm 0,0 UV-I 0 W/m 5,8 C 7,2 C 3,2 km/h (1 Bft) 95,74 %
01.04.2017 04:42 7,1 C 91 % 1011,6 hPa 0,0 l/m 2,6 km/h (1 Bft) S 189 0 min 0,000 mm 0,0 UV-I 0 W/m 5,7 C 7,1 C 3,2 km/h (1 Bft) 97,87 %
01.04.2017 04:44 6,9 C 91 % 1011,6 hPa 0,0 l/m 0,9 km/h (0 Bft) S 189 0 min 0,000 mm 0,0 UV-I 0 W/m 5,5 C 6,9 C 3,2 km/h (1 Bft) 95,74 %
01.04.2017 04:46 7,1 C 92 % 1011,6 hPa 0,0 l/m 1,3 km/h (1 Bft) S 189 0 min 0,000 mm 0,0 UV-I 0 W/m 5,9 C 7,1 C 3,2 km/h (1 Bft) 95,74 %
01.04.2017 04:48 7,1 C 92 % 1011,5 hPa 0,0 l/m 2,0 km/h (1 Bft) S 189 0 min 0,000 mm 0,0 UV-I 0 W/m 5,9 C 7,1 C 3,2 km/h (1 Bft) 97,87 %
01.04.2017 04:50 7,2 C 93 % 1011,5 hPa 0,0 l/m 1,7 km/h (1 Bft) S 189 0 min 0,000 mm 0,0 UV-I 0 W/m 6,1 C 7,2 C 3,2 km/h (1 Bft) 97,56 %
01.04.2017 04:52 7,2 C 92 % 1011,5 hPa 0,0 l/m 0,6 km/h (0 Bft) S 189 0 min 0,000 mm 0,0 UV-I 0 W/m 6,0 C 7,2 C 3,2 km/h (1 Bft) 97,87 %
01.04.2017 04:54 7,3 C 92 % 1011,5 hPa 0,0 l/m 2,1 km/h (1 Bft) S 189 0 min 0,000 mm 0,0 UV-I 0 W/m 6,1 C 7,3 C 3,2 km/h (1 Bft) 98,00 %
01.04.2017 04:56 7,4 C 93 % 1011,5 hPa 0,0 l/m 2,7 km/h (1 Bft) S 189 0 min 0,000 mm 0,0 UV-I 0 W/m 6,3 C 7,4 C 3,2 km/h (1 Bft) 98,00 %
01.04.2017 04:58 7,4 C 93 % 1011,5 hPa 0,0 l/m 3,6 km/h (1 Bft) S 189 0 min 0,000 mm 0,0 UV-I 0 W/m 6,3 C 7,4 C 4,8 km/h (1 Bft) 91,49 %
01.04.2017 05:00 7,4 C 92 % 1011,5 hPa 0,0 l/m 3,2 km/h (1 Bft) S 189 0 min 0,000 mm 0,0 UV-I 0 W/m 6,2 C 7,4 C 4,8 km/h (1 Bft) 95,74 %
01.04.2017 05:02 7,3 C 91 % 1011,5 hPa 0,0 l/m 1,2 km/h (1 Bft) S 189 0 min 0,000 mm 0,0 UV-I 0 W/m 5,9 C 7,3 C 4,8 km/h (1 Bft) 97,22 %
01.04.2017 05:04 7,1 C 91 % 1011,5 hPa 0,0 l/m 0,0 km/h (0 Bft) S 189 0 min 0,000 mm 0,0 UV-I 0 W/m 5,7 C 7,1 C 0,0 km/h (0 Bft) 100,00 %
01.04.2017 05:06 7,0 C 91 % 1011,5 hPa 0,0 l/m 1,3 km/h (1 Bft) S 189 0 min 0,000 mm 0,0 UV-I 0 W/m 5,6 C 7,0 C 3,2 km/h (1 Bft) 100,00 %
01.04.2017 05:08 7,0 C 92 % 1011,5 hPa 0,0 l/m 2,0 km/h (1 Bft) S 189 0 min 0,000 mm 0,0 UV-I 0 W/m 5,8 C 7,0 C 4,8 km/h (1 Bft) 100,00 %
01.04.2017 05:10 7,1 C 93 % 1011,5 hPa 0,0 l/m 2,6 km/h (1 Bft) S 189 0 min 0,000 mm 0,0 UV-I 0 W/m 6,0 C 7,1 C 4,8 km/h (1 Bft) 100,00 %
01.04.2017 05:12 7,0 C 92 % 1011,5 hPa 0,0 l/m 3,1 km/h (1 Bft) S 189 0 min 0,000 mm 0,0 UV-I 0 W/m 5,8 C 7,0 C 4,8 km/h (1 Bft) 100,00 %
01.04.2017 05:14 7,0 C 92 % 1011,6 hPa 0,0 l/m 3,1 km/h (1 Bft) S 189 0 min 0,000 mm 0,0 UV-I 0 W/m 5,8 C 7,0 C 4,8 km/h (1 Bft) 100,00 %
01.04.2017 05:16 7,0 C 92 % 1011,5 hPa 0,0 l/m 1,7 km/h (1 Bft) S 189 0 min 0,000 mm 0,0 UV-I 0 W/m 5,8 C 7,0 C 3,2 km/h (1 Bft) 97,87 %
01.04.2017 05:18 6,9 C 92 % 1011,5 hPa 0,0 l/m 0,0 km/h (0 Bft) S 189 0 min 0,000 mm 0,0 UV-I 0 W/m 5,7 C 6,9 C 0,0 km/h (0 Bft) 100,00 %
01.04.2017 05:20 6,9 C 92 % 1011,5 hPa 0,0 l/m 0,0 km/h (0 Bft) S 189 0 min 0,000 mm 0,0 UV-I 0 W/m 5,7 C 6,9 C 0,0 km/h (0 Bft) 97,87 %
01.04.2017 05:22 6,9 C 92 % 1011,5 hPa 0,0 l/m 0,0 km/h (0 Bft) S 189 0 min 0,000 mm 0,0 UV-I 0 W/m 5,7 C 6,9 C 0,0 km/h (0 Bft) 100,00 %
01.04.2017 05:24 6,9 C 92 % 1011,5 hPa 0,0 l/m 0,0 km/h (0 Bft) S 189 0 min 0,000 mm 0,0 UV-I 0 W/m 5,7 C 6,9 C 0,0 km/h (0 Bft) 97,87 %
01.04.2017 05:26 6,9 C 92 % 1011,5 hPa 0,0 l/m 0,1 km/h (0 Bft) S 189 0 min 0,000 mm 0,0 UV-I 0 W/m 5,7 C 6,9 C 1,6 km/h (1 Bft) 100,00 %
01.04.2017 05:28 6,9 C 92 % 1011,5 hPa 0,0 l/m 1,6 km/h (1 Bft) S 189 0 min 0,000 mm 0,0 UV-I 0 W/m 5,7 C 6,9 C 3,2 km/h (1 Bft) 98,00 %
01.04.2017 05:30 6,9 C 92 % 1011,5 hPa 0,0 l/m 2,1 km/h (1 Bft) S 189 0 min 0,000 mm 0,0 UV-I 0 W/m 5,7 C 6,9 C 3,2 km/h (1 Bft) 97,87 %
01.04.2017 05:32 7,0 C 93 % 1011,5 hPa 0,0 l/m 1,8 km/h (1 Bft) S 189 0 min 0,000 mm 0,0 UV-I 0 W/m 5,9 C 7,0 C 3,2 km/h (1 Bft) 97,92 %
01.04.2017 05:34 6,9 C 92 % 1011,5 hPa 0,0 l/m 1,0 km/h (0 Bft) S 189 0 min 0,000 mm 0,0 UV-I 0 W/m 5,7 C 6,9 C 3,2 km/h (1 Bft) 100,00 %
01.04.2017 05:36 6,8 C 92 % 1011,4 hPa 0,0 l/m 1,5 km/h (1 Bft) S 189 0 min 0,000 mm 0,0 UV-I 0 W/m 5,6 C 6,8 C 4,8 km/h (1 Bft) 100,00 %
01.04.2017 05:38 6,8 C 92 % 1011,4 hPa 0,0 l/m 2,3 km/h (1 Bft) S 189 0 min 0,000 mm 0,0 UV-I 0 W/m 5,6 C 6,8 C 3,2 km/h (1 Bft) 100,00 %
01.04.2017 05:40 6,7 C 92 % 1011,4 hPa 0,0 l/m 1,8 km/h (1 Bft) S 189 0 min 0,000 mm 0,0 UV-I 0 W/m 5,5 C 6,7 C 3,2 km/h (1 Bft) 100,00 %
01.04.2017 05:42 6,7 C 92 % 1011,4 hPa 0,0 l/m 0,1 km/h (0 Bft) S 189 0 min 0,000 mm 0,0 UV-I 0 W/m 5,5 C 6,7 C 1,6 km/h (1 Bft) 97,87 %
01.04.2017 05:44 6,7 C 93 % 1011,4 hPa 0,0 l/m 1,9 km/h (1 Bft) S 189 0 min 0,000 mm 0,0 UV-I 0 W/m 5,6 C 6,7 C 4,8 km/h (1 Bft) 100,00 %
01.04.2017 05:46 6,7 C 92 % 1011,4 hPa 0,0 l/m 3,6 km/h (1 Bft) S 189 0 min 0,000 mm 0,0 UV-I 0 W/m 5,5 C 6,7 C 4,8 km/h (1 Bft) 100,00 %
01.04.2017 05:48 6,6 C 93 % 1011,4 hPa 0,0 l/m 3,5 km/h (1 Bft) S 189 0 min 0,000 mm 0,0 UV-I 0 W/m 5,6 C 6,6 C 4,8 km/h (1 Bft) 95,74 %
01.04.2017 05:50 6,5 C 92 % 1011,4 hPa 0,0 l/m 3,0 km/h (1 Bft) S 189 0 min 0,000 mm 0,0 UV-I 0 W/m 5,3 C 6,5 C 4,8 km/h (1 Bft) 100,00 %
01.04.2017 05:52 6,4 C 93 % 1011,3 hPa 0,0 l/m 3,1 km/h (1 Bft) S 189 0 min 0,000 mm 0,0 UV-I 0 W/m 5,4 C 6,4 C 4,8 km/h (1 Bft) 100,00 %
01.04.2017 05:54 6,3 C 93 % 1011,3 hPa 0,0 l/m 2,3 km/h (1 Bft) S 189 0 min 0,000 mm 0,0 UV-I 0 W/m 5,3 C 6,3 C 3,2 km/h (1 Bft) 97,87 %
01.04.2017 05:56 6,3 C 93 % 1011,3 hPa 0,0 l/m 0,9 km/h (0 Bft) S 189 0 min 0,000 mm 0,0 UV-I 0 W/m 5,3 C 6,3 C 3,2 km/h (1 Bft) 100,00 %
01.04.2017 05:58 6,2 C 93 % 1011,3 hPa 0,0 l/m 0,7 km/h (0 Bft) S 189 0 min 0,000 mm 0,0 UV-I 0 W/m 5,2 C 6,2 C 1,6 km/h (1 Bft) 100,00 %
01.04.2017 06:00 6,3 C 93 % 1011,3 hPa 0,0 l/m 0,0 km/h (0 Bft) S 189 0 min 0,000 mm 0,0 UV-I 0 W/m 5,3 C 6,3 C 0,0 km/h (0 Bft) 97,87 %
01.04.2017 06:02 6,2 C 93 % 1011,3 hPa 0,0 l/m 0,0 km/h (0 Bft) S 189 0 min 0,000 mm 0,0 UV-I 0 W/m 5,2 C 6,2 C 0,0 km/h (0 Bft) 95,74 %
01.04.2017 06:04 6,2 C 93 % 1011,3 hPa 0,0 l/m 3,7 km/h (1 Bft) O 101 0 min 0,000 mm 0,0 UV-I 0 W/m 5,2 C 6,2 C 6,4 km/h (2 Bft) 95,74 %
01.04.2017 06:06 6,2 C 93 % 1011,2 hPa 0,0 l/m 2,8 km/h (1 Bft) O 100 0 min 0,000 mm 0,0 UV-I 0 W/m 5,2 C 6,2 C 4,8 km/h (1 Bft) 100,00 %
01.04.2017 06:08 6,3 C 94 % 1011,2 hPa 0,0 l/m 3,0 km/h (1 Bft) O 100 0 min 0,000 mm 0,0 UV-I 0 W/m 5,4 C 6,3 C 4,8 km/h (1 Bft) 100,00 %
01.04.2017 06:10 6,3 C 93 % 1011,3 hPa 0,0 l/m 2,6 km/h (1 Bft) O 100 0 min 0,000 mm 0,0 UV-I 0 W/m 5,3 C 6,3 C 4,8 km/h (1 Bft) 98,00 %
01.04.2017 06:12 6,4 C 93 % 1011,2 hPa 0,0 l/m 0,7 km/h (0 Bft) O 100 0 min 0,000 mm 0,0 UV-I 0 W/m 5,4 C 6,4 C 3,2 km/h (1 Bft) 97,87 %
01.04.2017 06:14 6,3 C 93 % 1011,2 hPa 0,0 l/m 1,6 km/h (1 Bft) O 100 0 min 0,000 mm 0,0 UV-I 0 W/m 5,3 C 6,3 C 4,8 km/h (1 Bft) 100,00 %
01.04.2017 06:16 6,3 C 92 % 1011,2 hPa 0,0 l/m 0,2 km/h (0 Bft) O 100 0 min 0,000 mm 0,0 UV-I 0 W/m 5,1 C 6,3 C 1,6 km/h (1 Bft) 97,87 %
01.04.2017 06:18 6,3 C 93 % 1011,3 hPa 0,0 l/m 0,1 km/h (0 Bft) O 100 0 min 0,000 mm 0,0 UV-I 0 W/m 5,3 C 6,3 C 1,6 km/h (1 Bft) 100,00 %
01.04.2017 06:20 6,3 C 93 % 1011,3 hPa 0,0 l/m 0,0 km/h (0 Bft) O 100 0 min 0,000 mm 0,0 UV-I 0 W/m 5,3 C 6,3 C 0,0 km/h (0 Bft) 100,00 %
01.04.2017 06:22 6,3 C 93 % 1011,3 hPa 0,0 l/m 0,0 km/h (0 Bft) O 100 0 min 0,000 mm 0,0 UV-I 0 W/m 5,3 C 6,3 C 0,0 km/h (0 Bft) 97,87 %
01.04.2017 06:24 6,3 C 93 % 1011,3 hPa 0,0 l/m 0,2 km/h (0 Bft) O 100 0 min 0,000 mm 0,0 UV-I 0 W/m 5,3 C 6,3 C 1,6 km/h (1 Bft) 100,00 %
01.04.2017 06:26 6,3 C 93 % 1011,3 hPa 0,0 l/m 0,1 km/h (0 Bft) O 100 0 min 0,000 mm 0,0 UV-I 0 W/m 5,3 C 6,3 C 1,6 km/h (1 Bft) 97,87 %
01.04.2017 06:28 6,3 C 93 % 1011,3 hPa 0,0 l/m 0,2 km/h (0 Bft) O 100 0 min 0,000 mm 0,0 UV-I 0 W/m 5,3 C 6,3 C 1,6 km/h (1 Bft) 100,00 %
01.04.2017 06:30 6,3 C 93 % 1011,2 hPa 0,0 l/m 0,1 km/h (0 Bft) O 100 0 min 0,000 mm 0,0 UV-I 1 W/m 5,3 C 6,3 C 1,6 km/h (1 Bft) 97,87 %
01.04.2017 06:32 6,3 C 93 % 1011,2 hPa 0,0 l/m 0,0 km/h (0 Bft) O 100 0 min 0,000 mm 0,0 UV-I 5 W/m 5,3 C 6,3 C 0,0 km/h (0 Bft) 100,00 %
01.04.2017 06:34 6,3 C 93 % 1011,2 hPa 0,0 l/m 0,0 km/h (0 Bft) O 100 0 min 0,000 mm 0,0 UV-I 5 W/m 5,3 C 6,3 C 0,0 km/h (0 Bft) 97,37 %
01.04.2017 06:36 6,3 C 93 % 1011,2 hPa 0,0 l/m 0,0 km/h (0 Bft) O 100 0 min 0,000 mm 0,0 UV-I 5 W/m 5,3 C 6,3 C 0,0 km/h (0 Bft) 95,74 %
01.04.2017 06:38 6,2 C 93 % 1011,2 hPa 0,0 l/m 0,0 km/h (0 Bft) O 100 0 min 0,000 mm 0,0 UV-I 6 W/m 5,2 C 6,2 C 0,0 km/h (0 Bft) 93,62 %
01.04.2017 06:40 6,2 C 93 % 1011,2 hPa 0,0 l/m 0,0 km/h (0 Bft) O 100 0 min 0,000 mm 0,0 UV-I 7 W/m 5,2 C 6,2 C 1,6 km/h (1 Bft) 97,87 %
01.04.2017 06:42 6,2 C 93 % 1011,1 hPa 0,0 l/m 1,9 km/h (1 Bft) O 100 0 min 0,000 mm 0,0 UV-I 8 W/m 5,2 C 6,2 C 3,2 km/h (1 Bft) 100,00 %
01.04.2017 06:44 6,1 C 93 % 1011,1 hPa 0,0 l/m 2,5 km/h (1 Bft) O 100 0 min 0,000 mm 0,0 UV-I 9 W/m 5,1 C 6,1 C 4,8 km/h (1 Bft) 96,00 %
01.04.2017 06:46 6,1 C 93 % 1011,2 hPa 0,0 l/m 2,0 km/h (1 Bft) O 100 0 min 0,000 mm 0,0 UV-I 11 W/m 5,1 C 6,1 C 3,2 km/h (1 Bft) 93,62 %
01.04.2017 06:48 6,1 C 93 % 1011,2 hPa 0,0 l/m 2,4 km/h (1 Bft) O 100 0 min 0,000 mm 0,0 UV-I 12 W/m 5,1 C 6,1 C 4,8 km/h (1 Bft) 95,74 %
01.04.2017 06:50 6,1 C 93 % 1011,2 hPa 0,0 l/m 1,5 km/h (1 Bft) O 100 0 min 0,000 mm 0,0 UV-I 14 W/m 5,1 C 6,1 C 4,8 km/h (1 Bft) 96,00 %
01.04.2017 06:52 6,2 C 93 % 1011,2 hPa 0,0 l/m 1,8 km/h (1 Bft) O 101 2 min 0,000 mm 0,0 UV-I 17 W/m 5,2 C 6,2 C 4,8 km/h (1 Bft) 97,87 %
01.04.2017 06:54 6,1 C 93 % 1011,2 hPa 0,0 l/m 2,0 km/h (1 Bft) O-SO 103 2 min 0,000 mm 0,0 UV-I 21 W/m 5,1 C 6,1 C 4,8 km/h (1 Bft) 93,62 %
01.04.2017 06:56 6,1 C 93 % 1011,2 hPa 0,0 l/m 3,5 km/h (1 Bft) O-SO 103 2 min 0,000 mm 0,0 UV-I 25 W/m 5,1 C 6,1 C 4,8 km/h (1 Bft) 93,62 %
01.04.2017 06:58 5,9 C 92 % 1011,2 hPa 0,0 l/m 1,8 km/h (1 Bft) O-SO 103 2 min 0,000 mm 0,0 UV-I 27 W/m 4,7 C 5,9 C 4,8 km/h (1 Bft) 91,49 %
01.04.2017 07:00 5,8 C 93 % 1011,2 hPa 0,0 l/m 0,7 km/h (0 Bft) O-SO 103 2 min 0,000 mm 0,0 UV-I 33 W/m 4,8 C 5,8 C 3,2 km/h (1 Bft) 91,49 %
01.04.2017 07:02 5,9 C 93 % 1011,3 hPa 0,0 l/m 0,0 km/h (0 Bft) O-SO 103 2 min 0,000 mm 0,0 UV-I 37 W/m 4,9 C 5,9 C 0,0 km/h (0 Bft) 94,87 %
01.04.2017 07:04 6,0 C 94 % 1011,3 hPa 0,0 l/m 0,0 km/h (0 Bft) O-SO 103 2 min 0,000 mm 0,0 UV-I 41 W/m 5,1 C 6,0 C 0,0 km/h (0 Bft) 91,49 %
01.04.2017 07:06 6,0 C 93 % 1011,2 hPa 0,0 l/m 0,0 km/h (0 Bft) O-SO 103 2 min 0,000 mm 0,0 UV-I 44 W/m 5,0 C 6,0 C 0,0 km/h (0 Bft) 91,49 %
01.04.2017 07:08 6,1 C 93 % 1011,2 hPa 0,0 l/m 0,0 km/h (0 Bft) O-SO 103 2 min 0,000 mm 0,0 UV-I 48 W/m 5,1 C 6,1 C 0,0 km/h (0 Bft) 89,83 %
01.04.2017 07:10 6,2 C 93 % 1011,2 hPa 0,0 l/m 0,0 km/h (0 Bft) O-SO 103 2 min 0,000 mm 0,0 UV-I 52 W/m 5,2 C 6,2 C 0,0 km/h (0 Bft) 88,57 %
01.04.2017 07:12 6,2 C 93 % 1011,2 hPa 0,0 l/m 0,0 km/h (0 Bft) O-SO 103 2 min 0,000 mm 0,0 UV-I 56 W/m 5,2 C 6,2 C 0,0 km/h (0 Bft) 91,49 %
01.04.2017 07:14 6,2 C 93 % 1011,2 hPa 0,0 l/m 0,0 km/h (0 Bft) O-SO 103 2 min 0,000 mm 0,0 UV-I 60 W/m 5,2 C 6,2 C 0,0 km/h (0 Bft) 93,62 %
01.04.2017 07:16 6,1 C 93 % 1011,3 hPa 0,0 l/m 0,0 km/h (0 Bft) O-SO 103 2 min 0,000 mm 0,0 UV-I 64 W/m 5,1 C 6,1 C 0,0 km/h (0 Bft) 91,49 %
01.04.2017 07:18 6,1 C 93 % 1011,3 hPa 0,0 l/m 0,0 km/h (0 Bft) O-SO 103 2 min 0,000 mm 0,0 UV-I 69 W/m 5,1 C 6,1 C 0,0 km/h (0 Bft) 95,74 %
01.04.2017 07:20 6,1 C 93 % 1011,3 hPa 0,0 l/m 0,0 km/h (0 Bft) O-SO 103 2 min 0,000 mm 0,0 UV-I 72 W/m 5,1 C 6,1 C 1,6 km/h (1 Bft) 89,36 %
01.04.2017 07:22 6,3 C 93 % 1011,3 hPa 0,0 l/m 0,6 km/h (0 Bft) O-SO 103 2 min 0,000 mm 0,0 UV-I 77 W/m 5,3 C 6,3 C 1,6 km/h (1 Bft) 95,74 %
01.04.2017 07:24 6,4 C 94 % 1011,2 hPa 0,0 l/m 0,0 km/h (0 Bft) O-SO 103 2 min 0,000 mm 0,0 UV-I 81 W/m 5,5 C 6,4 C 1,6 km/h (1 Bft) 95,74 %
01.04.2017 07:26 6,6 C 93 % 1011,2 hPa 0,0 l/m 0,2 km/h (0 Bft) O-SO 103 2 min 0,000 mm 0,0 UV-I 85 W/m 5,6 C 6,6 C 1,6 km/h (1 Bft) 91,49 %
01.04.2017 07:28 6,6 C 93 % 1011,3 hPa 0,0 l/m 0,0 km/h (0 Bft) O-SO 103 2 min 0,000 mm 0,0 UV-I 89 W/m 5,6 C 6,6 C 0,0 km/h (0 Bft) 94,00 %
01.04.2017 07:30 6,7 C 93 % 1011,3 hPa 0,0 l/m 0,0 km/h (0 Bft) O-SO 103 2 min 0,000 mm 0,0 UV-I 93 W/m 5,6 C 6,7 C 0,0 km/h (0 Bft) 93,62 %
01.04.2017 07:32 6,8 C 93 % 1011,3 hPa 0,0 l/m 0,0 km/h (0 Bft) O-SO 103 2 min 0,000 mm 0,0 UV-I 97 W/m 5,7 C 6,8 C 0,0 km/h (0 Bft) 95,74 %
01.04.2017 07:34 6,8 C 92 % 1011,3 hPa 0,0 l/m 0,0 km/h (0 Bft) O-SO 103 2 min 0,000 mm 0,0 UV-I 101 W/m 5,6 C 6,8 C 0,0 km/h (0 Bft) 95,74 %
01.04.2017 07:36 6,8 C 92 % 1011,3 hPa 0,0 l/m 0,0 km/h (0 Bft) O-SO 103 2 min 0,000 mm 0,0 UV-I 105 W/m 5,6 C 6,8 C 0,0 km/h (0 Bft) 97,92 %
01.04.2017 07:38 6,8 C 92 % 1011,3 hPa 0,0 l/m 0,0 km/h (0 Bft) O-SO 103 2 min 0,000 mm 0,0 UV-I 110 W/m 5,6 C 6,8 C 0,0 km/h (0 Bft) 95,65 %
01.04.2017 07:40 6,9 C 92 % 1011,3 hPa 0,0 l/m 0,0 km/h (0 Bft) O-SO 103 2 min 0,000 mm 0,0 UV-I 114 W/m 5,7 C 6,9 C 0,0 km/h (0 Bft) 97,92 %
01.04.2017 07:42 6,9 C 92 % 1011,3 hPa 0,0 l/m 0,0 km/h (0 Bft) O-SO 103 2 min 0,000 mm 0,0 UV-I 117 W/m 5,7 C 6,9 C 0,0 km/h (0 Bft) 95,74 %
01.04.2017 07:44 7,1 C 92 % 1011,3 hPa 0,0 l/m 0,0 km/h (0 Bft) O-SO 103 2 min 0,000 mm 0,0 UV-I 123 W/m 5,9 C 7,1 C 0,0 km/h (0 Bft) 91,49 %
01.04.2017 07:46 7,3 C 92 % 1011,3 hPa 0,0 l/m 0,0 km/h (0 Bft) O-SO 103 2 min 0,000 mm 0,0 UV-I 128 W/m 6,1 C 7,3 C 0,0 km/h (0 Bft) 95,74 %
01.04.2017 07:48 7,4 C 91 % 1011,3 hPa 0,0 l/m 0,0 km/h (0 Bft) O-SO 103 2 min 0,000 mm 0,0 UV-I 132 W/m 6,0 C 7,4 C 0,0 km/h (0 Bft) 97,37 %
01.04.2017 07:50 7,6 C 91 % 1011,3 hPa 0,0 l/m 0,0 km/h (0 Bft) O-SO 103 2 min 0,000 mm 0,0 UV-I 136 W/m 6,2 C 7,6 C 0,0 km/h (0 Bft) 93,62 %
01.04.2017 07:52 7,8 C 91 % 1011,3 hPa 0,0 l/m 0,7 km/h (0 Bft) O-SO 103 2 min 0,000 mm 0,0 UV-I 142 W/m 6,4 C 7,8 C 1,6 km/h (1 Bft) 95,74 %
01.04.2017 07:54 8,0 C 91 % 1011,3 hPa 0,0 l/m 1,2 km/h (1 Bft) O-SO 103 2 min 0,000 mm 0,0 UV-I 148 W/m 6,6 C 8,0 C 3,2 km/h (1 Bft) 95,74 %
01.04.2017 07:56 8,2 C 90 % 1011,3 hPa 0,0 l/m 0,8 km/h (0 Bft) O-SO 103 2 min 0,000 mm 0,0 UV-I 153 W/m 6,7 C 8,2 C 1,6 km/h (1 Bft) 95,74 %
01.04.2017 07:58 8,5 C 89 % 1011,3 hPa 0,0 l/m 0,7 km/h (0 Bft) O-SO 103 2 min 0,000 mm 0,0 UV-I 159 W/m 6,8 C 8,5 C 1,6 km/h (1 Bft) 95,74 %
01.04.2017 08:00 8,7 C 88 % 1011,2 hPa 0,0 l/m 2,2 km/h (1 Bft) O-SO 103 2 min 0,051 mm 0,0 UV-I 163 W/m 6,8 C 8,7 C 4,8 km/h (1 Bft) 97,87 %
01.04.2017 08:02 8,8 C 88 % 1011,3 hPa 0,0 l/m 3,0 km/h (1 Bft) O-SO 103 2 min 0,000 mm 0,0 UV-I 170 W/m 6,9 C 8,8 C 4,8 km/h (1 Bft) 93,62 %
01.04.2017 08:04 8,9 C 88 % 1011,2 hPa 0,0 l/m 3,1 km/h (1 Bft) O-SO 103 2 min 0,000 mm 0,0 UV-I 175 W/m 7,0 C 8,9 C 4,8 km/h (1 Bft) 97,87 %
01.04.2017 08:06 8,9 C 87 % 1011,3 hPa 0,0 l/m 2,7 km/h (1 Bft) O-SO 103 2 min 0,000 mm 0,0 UV-I 180 W/m 6,9 C 8,9 C 4,8 km/h (1 Bft) 97,87 %
01.04.2017 08:08 9,0 C 87 % 1011,3 hPa 0,0 l/m 3,4 km/h (1 Bft) O 86 2 min 0,000 mm 0,0 UV-I 186 W/m 7,0 C 9,0 C 6,4 km/h (2 Bft) 97,87 %
01.04.2017 08:10 9,1 C 87 % 1011,3 hPa 0,0 l/m 3,0 km/h (1 Bft) O 86 2 min 0,000 mm 0,0 UV-I 192 W/m 7,1 C 9,1 C 4,8 km/h (1 Bft) 96,00 %
01.04.2017 08:12 9,1 C 87 % 1011,3 hPa 0,0 l/m 2,1 km/h (1 Bft) O 86 2 min 0,000 mm 0,0 UV-I 198 W/m 7,1 C 9,1 C 3,2 km/h (1 Bft) 97,87 %
01.04.2017 08:14 9,3 C 88 % 1011,3 hPa 0,0 l/m 2,1 km/h (1 Bft) O 86 2 min 0,000 mm 0,0 UV-I 203 W/m 7,4 C 9,3 C 3,2 km/h (1 Bft) 97,87 %
01.04.2017 08:16 9,4 C 88 % 1011,2 hPa 0,0 l/m 2,8 km/h (1 Bft) O 86 2 min 0,000 mm 0,0 UV-I 209 W/m 7,5 C 9,4 C 3,2 km/h (1 Bft) 100,00 %
01.04.2017 08:18 9,5 C 87 % 1011,3 hPa 0,0 l/m 3,3 km/h (1 Bft) O 86 2 min 0,000 mm 0,0 UV-I 215 W/m 7,4 C 9,5 C 4,8 km/h (1 Bft) 100,00 %
01.04.2017 08:20 9,6 C 87 % 1011,3 hPa 0,0 l/m 3,9 km/h (1 Bft) O 83 2 min 0,000 mm 0,0 UV-I 221 W/m 7,5 C 9,6 C 6,4 km/h (2 Bft) 100,00 %
01.04.2017 08:22 9,6 C 87 % 1011,2 hPa 0,0 l/m 4,3 km/h (1 Bft) O-NO 64 2 min 0,000 mm 0,0 UV-I 227 W/m 7,5 C 9,6 C 6,4 km/h (2 Bft) 95,83 %
01.04.2017 08:24 9,7 C 86 % 1011,2 hPa 0,0 l/m 5,3 km/h (1 Bft) O-NO 63 2 min 0,000 mm 0,0 UV-I 233 W/m 7,5 C 9,7 C 6,4 km/h (2 Bft) 98,00 %
01.04.2017 08:26 9,8 C 86 % 1011,2 hPa 0,0 l/m 4,2 km/h (1 Bft) O-NO 63 2 min 0,000 mm 0,0 UV-I 238 W/m 7,6 C 9,8 C 6,4 km/h (2 Bft) 100,00 %
01.04.2017 08:28 9,8 C 87 % 1011,2 hPa 0,0 l/m 4,7 km/h (1 Bft) O-NO 63 2 min 0,000 mm 0,0 UV-I 245 W/m 7,7 C 9,8 C 6,4 km/h (2 Bft) 100,00 %
01.04.2017 08:30 9,9 C 86 % 1011,2 hPa 0,0 l/m 4,4 km/h (1 Bft) O-NO 65 2 min 0,000 mm 0,0 UV-I 251 W/m 7,7 C 9,9 C 8,0 km/h (2 Bft) 95,74 %
01.04.2017 08:32 10,1 C 85 % 1011,2 hPa 0,0 l/m 5,4 km/h (1 Bft) O-NO 67 2 min 0,000 mm 0,0 UV-I 256 W/m 7,7 C 10,1 C 9,7 km/h (2 Bft) 100,00 %
01.04.2017 08:34 10,2 C 85 % 1011,2 hPa 0,0 l/m 5,4 km/h (1 Bft) O-NO 63 2 min 0,000 mm 0,0 UV-I 262 W/m 7,8 C 10,2 C 6,4 km/h (2 Bft) 91,49 %
01.04.2017 08:36 10,3 C 84 % 1011,2 hPa 0,0 l/m 3,4 km/h (1 Bft) O-NO 64 2 min 0,000 mm 0,0 UV-I 267 W/m 7,7 C 10,3 C 6,4 km/h (2 Bft) 96,00 %
01.04.2017 08:38 10,3 C 84 % 1011,2 hPa 0,0 l/m 1,3 km/h (1 Bft) O-NO 64 2 min 0,000 mm 0,0 UV-I 273 W/m 7,7 C 10,3 C 3,2 km/h (1 Bft) 97,87 %
01.04.2017 08:40 10,3 C 84 % 1011,2 hPa 0,0 l/m 1,6 km/h (1 Bft) O 80 2 min 0,000 mm 0,5 UV-I 279 W/m 7,7 C 10,3 C 4,8 km/h (1 Bft) 97,87 %
01.04.2017 08:42 10,3 C 83 % 1011,3 hPa 0,0 l/m 0,8 km/h (0 Bft) O 80 2 min 0,000 mm 0,5 UV-I 285 W/m 7,5 C 10,3 C 3,2 km/h (1 Bft) 100,00 %
01.04.2017 08:44 10,3 C 83 % 1011,2 hPa 0,0 l/m 2,5 km/h (1 Bft) S-SO 147 2 min 0,000 mm 0,5 UV-I 291 W/m 7,5 C 10,3 C 6,4 km/h (2 Bft) 97,87 %
01.04.2017 08:46 10,4 C 84 % 1011,2 hPa 0,0 l/m 3,0 km/h (1 Bft) O 84 2 min 0,000 mm 0,5 UV-I 297 W/m 7,8 C 10,4 C 4,8 km/h (1 Bft) 100,00 %
01.04.2017 08:48 10,4 C 83 % 1011,2 hPa 0,0 l/m 0,8 km/h (0 Bft) O 84 2 min 0,000 mm 0,5 UV-I 303 W/m 7,6 C 10,4 C 3,2 km/h (1 Bft) 100,00 %
01.04.2017 08:50 10,6 C 84 % 1011,2 hPa 0,0 l/m 0,4 km/h (0 Bft) O 84 2 min 0,000 mm 0,6 UV-I 309 W/m 8,0 C 10,6 C 1,6 km/h (1 Bft) 100,00 %
01.04.2017 08:52 10,8 C 83 % 1011,2 hPa 0,0 l/m 2,0 km/h (1 Bft) O 84 2 min 0,000 mm 0,6 UV-I 315 W/m 8,0 C 10,8 C 3,2 km/h (1 Bft) 95,74 %
01.04.2017 08:54 11,0 C 82 % 1011,2 hPa 0,0 l/m 3,0 km/h (1 Bft) O-NO 67 2 min 0,000 mm 0,6 UV-I 321 W/m 8,0 C 11,0 C 8,0 km/h (2 Bft) 97,87 %
01.04.2017 08:56 11,2 C 81 % 1011,1 hPa 0,0 l/m 7,4 km/h (2 Bft) O-NO 77 2 min 0,000 mm 0,6 UV-I 327 W/m 8,1 C 10,5 C 12,9 km/h (3 Bft) 95,83 %
01.04.2017 08:58 11,2 C 80 % 1011,1 hPa 0,0 l/m 5,7 km/h (1 Bft) O-NO 63 2 min 0,000 mm 0,6 UV-I 332 W/m 7,9 C 11,2 C 8,0 km/h (2 Bft) 100,00 %
01.04.2017 09:00 11,3 C 79 % 1011,1 hPa 0,0 l/m 8,7 km/h (2 Bft) O-NO 69 2 min 0,000 mm 0,6 UV-I 339 W/m 7,8 C 9,8 C 12,9 km/h (3 Bft) 97,87 %
01.04.2017 09:02 11,3 C 79 % 1011,1 hPa 0,0 l/m 9,6 km/h (2 Bft) O-NO 72 2 min 0,127 mm 0,7 UV-I 344 W/m 7,8 C 9,3 C 14,5 km/h (3 Bft) 96,00 %
01.04.2017 09:04 11,3 C 79 % 1011,1 hPa 0,0 l/m 11,5 km/h (2 Bft) O-NO 65 2 min 0,000 mm 0,7 UV-I 349 W/m 7,8 C 8,3 C 16,1 km/h (3 Bft) 95,74 %
01.04.2017 09:06 11,3 C 79 % 1011,2 hPa 0,0 l/m 8,5 km/h (2 Bft) O-NO 60 2 min 0,000 mm 0,7 UV-I 354 W/m 7,8 C 9,9 C 12,9 km/h (3 Bft) 100,00 %
01.04.2017 09:08 11,4 C 79 % 1011,1 hPa 0,0 l/m 7,5 km/h (2 Bft) O 85 2 min 0,000 mm 0,7 UV-I 359 W/m 7,9 C 10,7 C 12,9 km/h (3 Bft) 97,87 %
01.04.2017 09:10 11,4 C 79 % 1011,1 hPa 0,0 l/m 7,4 km/h (2 Bft) NO 52 2 min 0,000 mm 0,7 UV-I 364 W/m 7,9 C 10,7 C 11,3 km/h (2 Bft) 95,74 %
01.04.2017 09:12 11,4 C 79 % 1011,1 hPa 0,0 l/m 6,7 km/h (2 Bft) O-NO 74 2 min 0,000 mm 0,8 UV-I 370 W/m 7,9 C 11,2 C 11,3 km/h (2 Bft) 100,00 %
01.04.2017 09:14 11,5 C 79 % 1011,1 hPa 0,0 l/m 9,5 km/h (2 Bft) O-NO 76 2 min 0,000 mm 0,8 UV-I 376 W/m 8,0 C 9,5 C 14,5 km/h (3 Bft) 100,00 %
01.04.2017 09:16 11,6 C 80 % 1011,0 hPa 0,0 l/m 5,7 km/h (1 Bft) O 82 2 min 0,000 mm 0,8 UV-I 381 W/m 8,3 C 11,6 C 11,3 km/h (2 Bft) 94,12 %
01.04.2017 09:18 11,7 C 79 % 1011,0 hPa 0,0 l/m 8,5 km/h (2 Bft) NO 55 2 min 0,000 mm 0,8 UV-I 387 W/m 8,2 C 10,3 C 14,5 km/h (3 Bft) 93,62 %
01.04.2017 09:20 11,8 C 79 % 1011,0 hPa 0,0 l/m 6,8 km/h (2 Bft) O-NO 65 2 min 0,000 mm 0,9 UV-I 392 W/m 8,3 C 11,5 C 12,9 km/h (3 Bft) 97,87 %
01.04.2017 09:22 11,9 C 77 % 1011,1 hPa 0,0 l/m 8,2 km/h (2 Bft) O-NO 67 2 min 0,000 mm 0,9 UV-I 398 W/m 8,0 C 10,7 C 12,9 km/h (3 Bft) 97,14 %
01.04.2017 09:24 11,9 C 77 % 1011,1 hPa 0,0 l/m 7,9 km/h (2 Bft) O-NO 71 2 min 0,000 mm 0,9 UV-I 403 W/m 8,0 C 10,9 C 12,9 km/h (3 Bft) 93,62 %
01.04.2017 09:26 11,9 C 76 % 1011,1 hPa 0,0 l/m 8,7 km/h (2 Bft) O-NO 65 2 min 0,000 mm 0,9 UV-I 409 W/m 7,8 C 10,4 C 12,9 km/h (3 Bft) 95,83 %
01.04.2017 09:28 12,0 C 76 % 1011,1 hPa 0,0 l/m 9,6 km/h (2 Bft) O-NO 77 2 min 0,000 mm 1,0 UV-I 414 W/m 7,9 C 10,0 C 12,9 km/h (3 Bft) 97,87 %
01.04.2017 09:30 12,1 C 76 % 1011,1 hPa 0,0 l/m 8,0 km/h (2 Bft) O 82 2 min 0,000 mm 1,0 UV-I 420 W/m 8,0 C 11,1 C 12,9 km/h (3 Bft) 93,62 %
01.04.2017 09:32 12,1 C 76 % 1011,1 hPa 0,0 l/m 6,1 km/h (2 Bft) O-NO 71 2 min 0,000 mm 1,0 UV-I 425 W/m 8,0 C 12,1 C 11,3 km/h (2 Bft) 93,62 %
01.04.2017 09:34 12,2 C 76 % 1011,1 hPa 0,0 l/m 5,7 km/h (1 Bft) O-NO 67 2 min 0,000 mm 1,0 UV-I 430 W/m 8,1 C 12,2 C 8,0 km/h (2 Bft) 97,92 %
01.04.2017 09:36 12,3 C 76 % 1011,1 hPa 0,0 l/m 6,2 km/h (2 Bft) NO 48 2 min 0,000 mm 1,1 UV-I 436 W/m 8,2 C 12,3 C 11,3 km/h (2 Bft) 95,74 %
01.04.2017 09:38 12,4 C 76 % 1011,1 hPa 0,0 l/m 7,2 km/h (2 Bft) NO 52 2 min 0,000 mm 1,1 UV-I 440 W/m 8,3 C 11,9 C 11,3 km/h (2 Bft) 95,74 %
01.04.2017 09:40 12,6 C 77 % 1011,1 hPa 0,0 l/m 6,5 km/h (2 Bft) O-NO 67 2 min 0,000 mm 1,1 UV-I 446 W/m 8,7 C 12,6 C 8,0 km/h (2 Bft) 93,62 %
01.04.2017 09:42 12,6 C 76 % 1011,1 hPa 0,0 l/m 5,4 km/h (1 Bft) NO 52 2 min 0,000 mm 1,1 UV-I 452 W/m 8,5 C 12,6 C 8,0 km/h (2 Bft) 96,00 %
01.04.2017 09:44 12,8 C 78 % 1011,1 hPa 0,0 l/m 5,9 km/h (2 Bft) NO 40 2 min 0,000 mm 1,2 UV-I 456 W/m 9,1 C 12,8 C 8,0 km/h (2 Bft) 96,00 %
01.04.2017 09:46 12,8 C 76 % 1011,1 hPa 0,0 l/m 5,3 km/h (1 Bft) NO 40 2 min 0,000 mm 1,2 UV-I 462 W/m 8,7 C 12,8 C 8,0 km/h (2 Bft) 95,74 %
01.04.2017 09:48 12,8 C 77 % 1011,1 hPa 0,0 l/m 3,1 km/h (1 Bft) NO 38 2 min 0,000 mm 1,2 UV-I 467 W/m 8,9 C 12,8 C 6,4 km/h (2 Bft) 100,00 %
01.04.2017 09:50 12,9 C 77 % 1011,0 hPa 0,0 l/m 5,7 km/h (1 Bft) O-NO 59 2 min 0,000 mm 1,3 UV-I 473 W/m 9,0 C 12,9 C 9,7 km/h (2 Bft) 98,00 %
01.04.2017 09:52 13,1 C 78 % 1011,0 hPa 0,0 l/m 4,5 km/h (1 Bft) NO 49 2 min 0,000 mm 1,3 UV-I 478 W/m 9,4 C 13,1 C 6,4 km/h (2 Bft) 100,00 %
01.04.2017 09:54 13,2 C 75 % 1011,0 hPa 0,0 l/m 6,2 km/h (2 Bft) NO 51 2 min 0,000 mm 1,3 UV-I 483 W/m 8,9 C 13,2 C 8,0 km/h (2 Bft) 100,00 %
01.04.2017 09:56 13,2 C 76 % 1011,0 hPa 0,0 l/m 4,5 km/h (1 Bft) NO 36 2 min 0,000 mm 1,3 UV-I 489 W/m 9,1 C 13,2 C 6,4 km/h (2 Bft) 100,00 %
01.04.2017 09:58 13,3 C 75 % 1011,1 hPa 0,0 l/m 4,2 km/h (1 Bft) NO 36 2 min 0,000 mm 1,3 UV-I 492 W/m 9,0 C 13,3 C 6,4 km/h (2 Bft) 100,00 %
01.04.2017 10:00 13,3 C 73 % 1011,1 hPa 0,0 l/m 3,8 km/h (1 Bft) O-NO 57 2 min 0,000 mm 1,4 UV-I 496 W/m 8,6 C 13,3 C 4,8 km/h (1 Bft) 97,87 %
01.04.2017 10:02 13,3 C 73 % 1011,1 hPa 0,0 l/m 3,3 km/h (1 Bft) O-NO 57 2 min 0,228 mm 1,4 UV-I 501 W/m 8,6 C 13,3 C 4,8 km/h (1 Bft) 95,74 %
01.04.2017 10:04 13,3 C 75 % 1011,1 hPa 0,0 l/m 2,0 km/h (1 Bft) NO 51 2 min 0,000 mm 1,4 UV-I 505 W/m 9,0 C 13,3 C 4,8 km/h (1 Bft) 97,87 %
01.04.2017 10:06 13,5 C 75 % 1011,0 hPa 0,0 l/m 4,0 km/h (1 Bft) NO 51 2 min 0,000 mm 1,5 UV-I 511 W/m 9,2 C 13,5 C 6,4 km/h (2 Bft) 97,87 %
01.04.2017 10:08 13,7 C 73 % 1011,0 hPa 0,0 l/m 4,2 km/h (1 Bft) NO 53 2 min 0,000 mm 1,5 UV-I 515 W/m 8,9 C 13,7 C 6,4 km/h (2 Bft) 97,87 %
01.04.2017 10:10 13,7 C 75 % 1011,1 hPa 0,0 l/m 6,0 km/h (2 Bft) O-NO 60 2 min 0,000 mm 1,5 UV-I 520 W/m 9,3 C 13,7 C 8,0 km/h (2 Bft) 100,00 %
01.04.2017 10:12 13,8 C 73 % 1011,0 hPa 0,0 l/m 3,3 km/h (1 Bft) O-NO 60 2 min 0,000 mm 1,5 UV-I 525 W/m 9,0 C 13,8 C 6,4 km/h (2 Bft) 96,00 %
01.04.2017 10:14 13,8 C 72 % 1011,1 hPa 0,0 l/m 4,1 km/h (1 Bft) O-NO 59 2 min 0,000 mm 1,6 UV-I 528 W/m 8,8 C 13,8 C 6,4 km/h (2 Bft) 96,00 %
01.04.2017 10:16 13,9 C 74 % 1011,1 hPa 0,0 l/m 4,2 km/h (1 Bft) O-NO 58 2 min 0,000 mm 1,6 UV-I 533 W/m 9,3 C 13,9 C 6,4 km/h (2 Bft) 97,87 %
01.04.2017 10:18 14,1 C 72 % 1011,1 hPa 0,0 l/m 4,9 km/h (1 Bft) O-NO 61 2 min 0,000 mm 1,6 UV-I 537 W/m 9,1 C 14,1 C 8,0 km/h (2 Bft) 95,83 %
01.04.2017 10:20 14,2 C 74 % 1011,1 hPa 0,0 l/m 4,1 km/h (1 Bft) NO 48 2 min 0,000 mm 1,7 UV-I 541 W/m 9,6 C 14,2 C 6,4 km/h (2 Bft) 100,00 %
01.04.2017 10:22 14,3 C 73 % 1011,1 hPa 0,0 l/m 3,7 km/h (1 Bft) NO 41 2 min 0,000 mm 1,7 UV-I 545 W/m 9,5 C 14,3 C 8,0 km/h (2 Bft) 97,87 %
01.04.2017 10:24 14,3 C 71 % 1011,0 hPa 0,0 l/m 4,3 km/h (1 Bft) O-NO 62 2 min 0,000 mm 1,7 UV-I 549 W/m 9,1 C 14,3 C 8,0 km/h (2 Bft) 100,00 %
01.04.2017 10:26 14,4 C 71 % 1011,0 hPa 0,0 l/m 4,3 km/h (1 Bft) O-NO 61 2 min 0,000 mm 1,8 UV-I 553 W/m 9,2 C 14,4 C 8,0 km/h (2 Bft) 95,16 %
01.04.2017 10:28 14,4 C 71 % 1011,0 hPa 0,0 l/m 4,4 km/h (1 Bft) O 87 2 min 0,000 mm 1,8 UV-I 559 W/m 9,2 C 14,4 C 6,4 km/h (2 Bft) 95,74 %
01.04.2017 10:30 14,3 C 70 % 1011,1 hPa 0,0 l/m 2,5 km/h (1 Bft) O 83 2 min 0,000 mm 1,8 UV-I 563 W/m 8,9 C 14,3 C 6,4 km/h (2 Bft) 97,87 %
01.04.2017 10:32 14,3 C 71 % 1011,1 hPa 0,0 l/m 3,7 km/h (1 Bft) NO 44 2 min 0,000 mm 1,9 UV-I 566 W/m 9,1 C 14,3 C 6,4 km/h (2 Bft) 100,00 %
01.04.2017 10:34 14,5 C 73 % 1011,0 hPa 0,0 l/m 5,1 km/h (1 Bft) O-NO 57 2 min 0,000 mm 1,9 UV-I 570 W/m 9,7 C 14,5 C 8,0 km/h (2 Bft) 97,87 %
01.04.2017 10:36 14,6 C 70 % 1011,0 hPa 0,0 l/m 4,7 km/h (1 Bft) O-NO 65 2 min 0,000 mm 1,9 UV-I 574 W/m 9,2 C 14,6 C 8,0 km/h (2 Bft) 97,87 %
01.04.2017 10:38 14,8 C 72 % 1011,0 hPa 0,0 l/m 6,3 km/h (2 Bft) NO 47 2 min 0,000 mm 2,0 UV-I 579 W/m 9,8 C 14,8 C 9,7 km/h (2 Bft) 100,00 %
01.04.2017 10:40 14,8 C 70 % 1011,0 hPa 0,0 l/m 4,2 km/h (1 Bft) NO 52 2 min 0,000 mm 2,0 UV-I 584 W/m 9,4 C 14,8 C 8,0 km/h (2 Bft) 100,00 %
01.04.2017 10:42 14,8 C 69 % 1011,0 hPa 0,0 l/m 4,2 km/h (1 Bft) O-NO 63 2 min 0,000 mm 2,0 UV-I 587 W/m 9,2 C 14,8 C 6,4 km/h (2 Bft) 97,92 %
01.04.2017 10:44 14,8 C 70 % 1010,9 hPa 0,0 l/m 5,5 km/h (1 Bft) NO 42 2 min 0,000 mm 2,0 UV-I 591 W/m 9,4 C 14,8 C 8,0 km/h (2 Bft) 97,87 %
01.04.2017 10:46 14,9 C 71 % 1010,9 hPa 0,0 l/m 4,2 km/h (1 Bft) NO 38 2 min 0,000 mm 2,1 UV-I 595 W/m 9,7 C 14,9 C 6,4 km/h (2 Bft) 100,00 %
01.04.2017 10:48 15,0 C 70 % 1010,9 hPa 0,0 l/m 3,5 km/h (1 Bft) NO 44 2 min 0,000 mm 2,1 UV-I 599 W/m 9,6 C 15,0 C 6,4 km/h (2 Bft) 93,62 %
01.04.2017 10:50 15,0 C 69 % 1010,9 hPa 0,0 l/m 4,4 km/h (1 Bft) O-NO 57 2 min 0,000 mm 2,1 UV-I 603 W/m 9,4 C 15,0 C 6,4 km/h (2 Bft) 100,00 %
01.04.2017 10:52 15,0 C 68 % 1010,8 hPa 0,0 l/m 5,5 km/h (1 Bft) NO 41 2 min 0,000 mm 2,2 UV-I 608 W/m 9,1 C 15,0 C 8,0 km/h (2 Bft) 98,11 %
01.04.2017 10:54 15,1 C 70 % 1010,8 hPa 0,0 l/m 5,7 km/h (1 Bft) O-NO 57 2 min 0,000 mm 2,2 UV-I 610 W/m 9,7 C 15,1 C 8,0 km/h (2 Bft) 96,00 %
01.04.2017 10:56 15,2 C 68 % 1010,9 hPa 0,0 l/m 3,5 km/h (1 Bft) O-NO 61 2 min 0,000 mm 2,2 UV-I 615 W/m 9,3 C 15,2 C 6,4 km/h (2 Bft) 95,74 %
01.04.2017 10:58 15,2 C 68 % 1010,9 hPa 0,0 l/m 4,2 km/h (1 Bft) O-NO 60 2 min 0,000 mm 2,3 UV-I 619 W/m 9,3 C 15,2 C 8,0 km/h (2 Bft) 95,83 %
01.04.2017 11:00 15,3 C 69 % 1010,8 hPa 0,0 l/m 4,7 km/h (1 Bft) NO 55 2 min 0,305 mm 2,3 UV-I 622 W/m 9,6 C 15,3 C 6,4 km/h (2 Bft) 95,74 %
01.04.2017 11:02 15,6 C 68 % 1010,8 hPa 0,0 l/m 5,1 km/h (1 Bft) O-NO 74 2 min 0,000 mm 2,3 UV-I 626 W/m 9,7 C 15,6 C 8,0 km/h (2 Bft) 93,62 %
01.04.2017 11:04 15,6 C 69 % 1010,8 hPa 0,0 l/m 3,8 km/h (1 Bft) NO 46 2 min 0,000 mm 2,4 UV-I 630 W/m 9,9 C 15,6 C 6,4 km/h (2 Bft) 95,74 %
01.04.2017 11:06 15,6 C 67 % 1010,8 hPa 0,0 l/m 4,1 km/h (1 Bft) NO 44 2 min 0,000 mm 2,4 UV-I 634 W/m 9,5 C 15,6 C 6,4 km/h (2 Bft) 95,74 %
01.04.2017 11:08 15,7 C 66 % 1010,7 hPa 0,0 l/m 6,1 km/h (2 Bft) O-NO 78 2 min 0,000 mm 2,4 UV-I 638 W/m 9,4 C 15,7 C 11,3 km/h (2 Bft) 97,37 %
01.04.2017 11:10 15,7 C 67 % 1010,7 hPa 0,0 l/m 5,7 km/h (1 Bft) O-NO 69 2 min 0,000 mm 2,5 UV-I 640 W/m 9,6 C 15,7 C 12,9 km/h (3 Bft) 97,87 %
01.04.2017 11:12 15,7 C 67 % 1010,7 hPa 0,0 l/m 6,2 km/h (2 Bft) O-NO 67 2 min 0,000 mm 2,5 UV-I 643 W/m 9,6 C 15,7 C 11,3 km/h (2 Bft) 98,00 %
01.04.2017 11:14 15,7 C 66 % 1010,7 hPa 0,0 l/m 3,2 km/h (1 Bft) O 80 2 min 0,000 mm 2,5 UV-I 646 W/m 9,4 C 15,7 C 6,4 km/h (2 Bft) 93,62 %
01.04.2017 11:16 15,6 C 65 % 1010,7 hPa 0,0 l/m 2,5 km/h (1 Bft) O 86 2 min 0,000 mm 2,5 UV-I 649 W/m 9,0 C 15,6 C 4,8 km/h (1 Bft) 93,62 %
01.04.2017 11:18 15,7 C 68 % 1010,7 hPa 0,0 l/m 3,0 km/h (1 Bft) O-NO 59 2 min 0,000 mm 2,6 UV-I 652 W/m 9,8 C 15,7 C 6,4 km/h (2 Bft) 95,74 %
01.04.2017 11:20 16,0 C 66 % 1010,7 hPa 0,0 l/m 3,3 km/h (1 Bft) O-NO 59 2 min 0,000 mm 2,6 UV-I 657 W/m 9,7 C 16,0 C 4,8 km/h (1 Bft) 95,74 %
01.04.2017 11:22 16,2 C 66 % 1010,7 hPa 0,0 l/m 3,0 km/h (1 Bft) NO 48 2 min 0,000 mm 2,6 UV-I 657 W/m 9,8 C 16,2 C 6,4 km/h (2 Bft) 93,62 %
01.04.2017 11:24 16,3 C 67 % 1010,7 hPa 0,0 l/m 2,6 km/h (1 Bft) N-NO 31 2 min 0,000 mm 2,7 UV-I 662 W/m 10,2 C 16,3 C 6,4 km/h (2 Bft) 96,00 %
01.04.2017 11:26 16,3 C 65 % 1010,6 hPa 0,0 l/m 3,5 km/h (1 Bft) O 86 2 min 0,000 mm 2,7 UV-I 664 W/m 9,7 C 16,3 C 8,0 km/h (2 Bft) 89,47 %
01.04.2017 11:28 16,2 C 65 % 1010,6 hPa 0,0 l/m 3,7 km/h (1 Bft) O 79 2 min 0,000 mm 2,7 UV-I 667 W/m 9,6 C 16,2 C 8,0 km/h (2 Bft) 95,74 %
01.04.2017 11:30 16,1 C 65 % 1010,6 hPa 0,0 l/m 4,0 km/h (1 Bft) O-NO 78 2 min 0,000 mm 2,8 UV-I 670 W/m 9,5 C 16,1 C 6,4 km/h (2 Bft) 97,92 %
01.04.2017 11:32 16,4 C 66 % 1010,6 hPa 0,0 l/m 5,6 km/h (1 Bft) O 98 2 min 0,000 mm 2,8 UV-I 672 W/m 10,0 C 16,4 C 9,7 km/h (2 Bft) 100,00 %
01.04.2017 11:34 16,5 C 64 % 1010,6 hPa 0,0 l/m 6,1 km/h (2 Bft) O-NO 76 2 min 0,000 mm 2,8 UV-I 677 W/m 9,7 C 16,5 C 11,3 km/h (2 Bft) 91,49 %
01.04.2017 11:36 16,4 C 64 % 1010,6 hPa 0,0 l/m 3,3 km/h (1 Bft) O-NO 71 2 min 0,000 mm 2,8 UV-I 678 W/m 9,6 C 16,4 C 6,4 km/h (2 Bft) 97,87 %
01.04.2017 11:38 16,4 C 64 % 1010,6 hPa 0,0 l/m 4,4 km/h (1 Bft) O 86 2 min 0,000 mm 2,8 UV-I 681 W/m 9,6 C 16,4 C 6,4 km/h (2 Bft) 100,00 %
01.04.2017 11:40 16,5 C 62 % 1010,6 hPa 0,0 l/m 4,6 km/h (1 Bft) O 98 2 min 0,000 mm 2,9 UV-I 684 W/m 9,2 C 16,5 C 8,0 km/h (2 Bft) 98,00 %
01.04.2017 11:42 16,4 C 64 % 1010,6 hPa 0,0 l/m 3,8 km/h (1 Bft) O 80 2 min 0,000 mm 2,9 UV-I 686 W/m 9,6 C 16,4 C 8,0 km/h (2 Bft) 93,62 %
01.04.2017 11:44 16,5 C 64 % 1010,6 hPa 0,0 l/m 5,5 km/h (1 Bft) O 94 2 min 0,000 mm 2,9 UV-I 689 W/m 9,7 C 16,5 C 9,7 km/h (2 Bft) 93,62 %
01.04.2017 11:46 16,6 C 63 % 1010,6 hPa 0,0 l/m 4,6 km/h (1 Bft) O-NO 71 2 min 0,000 mm 2,9 UV-I 691 W/m 9,5 C 16,6 C 8,0 km/h (2 Bft) 91,49 %
01.04.2017 11:48 16,7 C 64 % 1010,5 hPa 0,0 l/m 4,3 km/h (1 Bft) O-NO 78 2 min 0,000 mm 3,0 UV-I 694 W/m 9,9 C 16,7 C 6,4 km/h (2 Bft) 97,87 %
01.04.2017 11:50 16,8 C 61 % 1010,5 hPa 0,0 l/m 4,6 km/h (1 Bft) O-NO 67 2 min 0,000 mm 3,0 UV-I 696 W/m 9,2 C 16,8 C 6,4 km/h (2 Bft) 93,62 %
01.04.2017 11:52 17,0 C 64 % 1010,5 hPa 0,0 l/m 3,9 km/h (1 Bft) O-NO 65 2 min 0,000 mm 3,0 UV-I 693 W/m 10,1 C 17,0 C 6,4 km/h (2 Bft) 94,74 %
01.04.2017 11:54 16,9 C 63 % 1010,4 hPa 0,0 l/m 5,8 km/h (2 Bft) O-NO 65 2 min 0,000 mm 3,0 UV-I 691 W/m 9,8 C 16,9 C 8,0 km/h (2 Bft) 97,87 %
01.04.2017 11:56 17,2 C 63 % 1010,3 hPa 0,0 l/m 6,6 km/h (2 Bft) NO 43 2 min 0,000 mm 3,0 UV-I 702 W/m 10,1 C 17,1 C 9,7 km/h (2 Bft) 94,00 %
01.04.2017 11:58 17,3 C 61 % 1010,4 hPa 0,0 l/m 5,0 km/h (1 Bft) NO 55 2 min 0,000 mm 3,1 UV-I 706 W/m 9,7 C 17,3 C 8,0 km/h (2 Bft) 89,36 %
01.04.2017 12:00 17,3 C 60 % 1010,4 hPa 0,0 l/m 3,9 km/h (1 Bft) NO 54 2 min 0,381 mm 3,1 UV-I 707 W/m 9,5 C 17,3 C 6,4 km/h (2 Bft) 97,87 %
01.04.2017 12:02 17,3 C 62 % 1010,4 hPa 0,0 l/m 4,5 km/h (1 Bft) O-NO 66 2 min 0,000 mm 3,1 UV-I 709 W/m 9,9 C 17,3 C 9,7 km/h (2 Bft) 91,49 %
01.04.2017 12:04 17,4 C 60 % 1010,4 hPa 0,0 l/m 5,8 km/h (2 Bft) O-NO 71 2 min 0,000 mm 3,1 UV-I 708 W/m 9,6 C 17,4 C 8,0 km/h (2 Bft) 96,00 %
01.04.2017 12:06 17,4 C 59 % 1010,4 hPa 0,0 l/m 5,8 km/h (2 Bft) O-NO 68 2 min 0,000 mm 3,1 UV-I 712 W/m 9,3 C 17,4 C 9,7 km/h (2 Bft) 95,74 %
01.04.2017 12:08 17,3 C 60 % 1010,4 hPa 0,0 l/m 3,8 km/h (1 Bft) O 90 2 min 0,000 mm 3,1 UV-I 714 W/m 9,5 C 17,3 C 8,0 km/h (2 Bft) 93,62 %
01.04.2017 12:10 17,4 C 61 % 1010,4 hPa 0,0 l/m 6,3 km/h (2 Bft) O-NO 61 2 min 0,000 mm 3,2 UV-I 715 W/m 9,8 C 17,4 C 12,9 km/h (3 Bft) 93,62 %
01.04.2017 12:12 17,4 C 60 % 1010,3 hPa 0,0 l/m 2,3 km/h (1 Bft) O-NO 61 2 min 0,000 mm 3,2 UV-I 716 W/m 9,6 C 17,4 C 4,8 km/h (1 Bft) 94,87 %
01.04.2017 12:14 17,7 C 59 % 1010,3 hPa 0,0 l/m 5,8 km/h (2 Bft) NO 42 2 min 0,000 mm 3,2 UV-I 719 W/m 9,6 C 17,7 C 8,0 km/h (2 Bft) 91,49 %
01.04.2017 12:16 17,8 C 58 % 1010,3 hPa 0,0 l/m 5,5 km/h (1 Bft) O-NO 64 2 min 0,000 mm 3,2 UV-I 721 W/m 9,4 C 17,8 C 8,0 km/h (2 Bft) 95,74 %
01.04.2017 12:18 17,7 C 57 % 1010,3 hPa 0,0 l/m 3,6 km/h (1 Bft) O 84 2 min 0,000 mm 3,2 UV-I 721 W/m 9,1 C 17,7 C 6,4 km/h (2 Bft) 96,00 %
01.04.2017 12:20 17,6 C 57 % 1010,3 hPa 0,0 l/m 3,1 km/h (1 Bft) O-SO 117 2 min 0,000 mm 3,2 UV-I 723 W/m 9,0 C 17,6 C 6,4 km/h (2 Bft) 93,62 %
01.04.2017 12:22 17,8 C 59 % 1010,2 hPa 0,0 l/m 4,3 km/h (1 Bft) O 81 2 min 0,000 mm 3,3 UV-I 726 W/m 9,7 C 17,8 C 8,0 km/h (2 Bft) 93,62 %
01.04.2017 12:24 17,9 C 59 % 1010,3 hPa 0,0 l/m 2,8 km/h (1 Bft) O 81 2 min 0,000 mm 3,3 UV-I 726 W/m 9,8 C 17,9 C 4,8 km/h (1 Bft) 94,34 %
01.04.2017 12:26 18,1 C 56 % 1010,2 hPa 0,0 l/m 5,5 km/h (1 Bft) O-NO 76 2 min 0,000 mm 3,3 UV-I 728 W/m 9,2 C 18,1 C 11,3 km/h (2 Bft) 92,11 %
01.04.2017 12:28 18,1 C 56 % 1010,2 hPa 0,0 l/m 5,4 km/h (1 Bft) O 89 2 min 0,000 mm 3,3 UV-I 729 W/m 9,2 C 18,1 C 8,0 km/h (2 Bft) 93,62 %
01.04.2017 12:30 17,9 C 57 % 1010,2 hPa 0,0 l/m 4,8 km/h (1 Bft) O-NO 78 2 min 0,000 mm 3,3 UV-I 729 W/m 9,3 C 17,9 C 6,4 km/h (2 Bft) 96,00 %
01.04.2017 12:32 17,9 C 58 % 1010,2 hPa 0,0 l/m 1,2 km/h (1 Bft) O-NO 78 2 min 0,000 mm 3,3 UV-I 730 W/m 9,5 C 17,9 C 4,8 km/h (1 Bft) 95,74 %
01.04.2017 12:34 17,9 C 57 % 1010,2 hPa 0,0 l/m 2,2 km/h (1 Bft) O-SO 108 2 min 0,000 mm 3,3 UV-I 730 W/m 9,3 C 17,9 C 4,8 km/h (1 Bft) 93,62 %
01.04.2017 12:36 18,0 C 54 % 1010,1 hPa 0,0 l/m 2,9 km/h (1 Bft) SO 134 2 min 0,000 mm 3,4 UV-I 730 W/m 8,6 C 18,0 C 6,4 km/h (2 Bft) 98,00 %
01.04.2017 12:38 18,0 C 55 % 1010,2 hPa 0,0 l/m 1,1 km/h (1 Bft) O 101 2 min 0,000 mm 3,4 UV-I 733 W/m 8,8 C 18,0 C 3,2 km/h (1 Bft) 93,62 %
01.04.2017 12:40 18,1 C 55 % 1010,1 hPa 0,0 l/m 4,5 km/h (1 Bft) O 80 2 min 0,000 mm 3,4 UV-I 735 W/m 8,9 C 18,1 C 8,0 km/h (2 Bft) 95,74 %
01.04.2017 12:42 18,2 C 57 % 1010,1 hPa 0,0 l/m 2,0 km/h (1 Bft) O 84 2 min 0,000 mm 3,4 UV-I 733 W/m 9,5 C 18,2 C 4,8 km/h (1 Bft) 95,74 %
01.04.2017 12:44 18,3 C 57 % 1010,1 hPa 0,0 l/m 4,4 km/h (1 Bft) O 80 2 min 0,000 mm 3,4 UV-I 735 W/m 9,6 C 18,3 C 8,0 km/h (2 Bft) 95,74 %
01.04.2017 12:46 18,3 C 57 % 1010,0 hPa 0,0 l/m 2,7 km/h (1 Bft) NO 46 2 min 0,000 mm 3,4 UV-I 735 W/m 9,6 C 18,3 C 6,4 km/h (2 Bft) 93,62 %
01.04.2017 12:48 18,5 C 58 % 1010,0 hPa 0,0 l/m 4,6 km/h (1 Bft) O-NO 71 2 min 0,000 mm 3,4 UV-I 734 W/m 10,1 C 18,5 C 8,0 km/h (2 Bft) 97,87 %
01.04.2017 12:50 18,5 C 60 % 1010,0 hPa 0,0 l/m 4,3 km/h (1 Bft) O-NO 71 2 min 0,000 mm 3,4 UV-I 736 W/m 10,6 C 18,5 C 9,7 km/h (2 Bft) 94,87 %
01.04.2017 12:52 18,8 C 59 % 1010,0 hPa 0,0 l/m 5,6 km/h (1 Bft) O-NO 57 2 min 0,000 mm 3,4 UV-I 737 W/m 10,6 C 18,8 C 8,0 km/h (2 Bft) 94,00 %
01.04.2017 12:54 18,7 C 60 % 1009,9 hPa 0,0 l/m 5,1 km/h (1 Bft) NO 44 2 min 0,000 mm 3,4 UV-I 738 W/m 10,8 C 18,7 C 9,7 km/h (2 Bft) 91,84 %
01.04.2017 12:56 18,9 C 57 % 1010,0 hPa 0,0 l/m 6,4 km/h (2 Bft) NO 41 2 min 0,000 mm 3,4 UV-I 737 W/m 10,2 C 18,9 C 8,0 km/h (2 Bft) 95,74 %
01.04.2017 12:58 18,9 C 58 % 1009,9 hPa 0,0 l/m 3,8 km/h (1 Bft) NO 47 2 min 0,000 mm 3,4 UV-I 736 W/m 10,5 C 18,9 C 6,4 km/h (2 Bft) 92,00 %
01.04.2017 13:00 19,2 C 58 % 1009,9 hPa 0,0 l/m 5,1 km/h (1 Bft) NO 55 2 min 0,000 mm 3,4 UV-I 737 W/m 10,7 C 19,2 C 8,0 km/h (2 Bft) 95,74 %
01.04.2017 13:02 19,2 C 53 % 1009,9 hPa 0,0 l/m 3,8 km/h (1 Bft) O 96 2 min 0,432 mm 3,4 UV-I 737 W/m 9,4 C 19,2 C 6,4 km/h (2 Bft) 91,49 %
01.04.2017 13:04 19,1 C 55 % 1009,9 hPa 0,0 l/m 4,8 km/h (1 Bft) O-NO 63 2 min 0,000 mm 3,4 UV-I 737 W/m 9,8 C 19,1 C 8,0 km/h (2 Bft) 94,74 %
01.04.2017 13:06 19,3 C 56 % 1009,8 hPa 0,0 l/m 7,1 km/h (2 Bft) O-NO 61 2 min 0,000 mm 3,4 UV-I 738 W/m 10,3 C 19,0 C 12,9 km/h (3 Bft) 91,49 %
01.04.2017 13:08 19,5 C 55 % 1009,8 hPa 0,0 l/m 5,2 km/h (1 Bft) O-NO 59 2 min 0,000 mm 3,4 UV-I 738 W/m 10,2 C 19,5 C 8,0 km/h (2 Bft) 87,23 %
01.04.2017 13:10 19,3 C 52 % 1009,8 hPa 0,0 l/m 5,1 km/h (1 Bft) NO 53 2 min 0,000 mm 3,4 UV-I 736 W/m 9,2 C 19,3 C 8,0 km/h (2 Bft) 93,62 %
01.04.2017 13:12 19,4 C 56 % 1009,8 hPa 0,0 l/m 2,0 km/h (1 Bft) NO 53 2 min 0,000 mm 3,4 UV-I 732 W/m 10,4 C 19,4 C 6,4 km/h (2 Bft) 93,62 %
01.04.2017 13:14 19,4 C 55 % 1009,8 hPa 0,0 l/m 4,1 km/h (1 Bft) O-NO 71 2 min 0,000 mm 3,4 UV-I 735 W/m 10,1 C 19,4 C 9,7 km/h (2 Bft) 96,00 %
01.04.2017 13:16 19,4 C 55 % 1009,8 hPa 0,0 l/m 6,0 km/h (2 Bft) O-NO 59 2 min 0,000 mm 3,4 UV-I 734 W/m 10,1 C 19,4 C 9,7 km/h (2 Bft) 91,49 %
01.04.2017 13:18 19,7 C 55 % 1009,7 hPa 0,0 l/m 6,1 km/h (2 Bft) O-NO 62 2 min 0,000 mm 3,4 UV-I 735 W/m 10,4 C 19,7 C 9,7 km/h (2 Bft) 94,00 %
01.04.2017 13:20 19,8 C 53 % 1009,7 hPa 0,0 l/m 6,5 km/h (2 Bft) O-NO 62 2 min 0,000 mm 3,4 UV-I 733 W/m 9,9 C 19,8 C 12,9 km/h (3 Bft) 89,47 %
01.04.2017 13:22 19,8 C 54 % 1009,7 hPa 0,0 l/m 6,9 km/h (2 Bft) N-NO 17 2 min 0,000 mm 3,4 UV-I 733 W/m 10,2 C 19,6 C 9,7 km/h (2 Bft) 94,00 %
01.04.2017 13:24 19,8 C 58 % 1009,7 hPa 0,0 l/m 3,5 km/h (1 Bft) NO 39 2 min 0,000 mm 3,4 UV-I 732 W/m 11,3 C 19,8 C 8,0 km/h (2 Bft) 100,00 %
01.04.2017 13:26 19,8 C 52 % 1009,7 hPa 0,0 l/m 4,9 km/h (1 Bft) O-NO 60 2 min 0,000 mm 3,4 UV-I 730 W/m 9,7 C 19,8 C 8,0 km/h (2 Bft) 98,00 %
01.04.2017 13:28 19,8 C 59 % 1009,7 hPa 0,0 l/m 1,6 km/h (1 Bft) N 5 2 min 0,000 mm 3,4 UV-I 731 W/m 11,6 C 19,8 C 4,8 km/h (1 Bft) 100,00 %
01.04.2017 13:30 19,8 C 57 % 1009,7 hPa 0,0 l/m 4,0 km/h (1 Bft) N-NO 15 2 min 0,000 mm 3,4 UV-I 730 W/m 11,0 C 19,8 C 8,0 km/h (2 Bft) 100,00 %
01.04.2017 13:32 19,8 C 58 % 1009,7 hPa 0,0 l/m 2,7 km/h (1 Bft) N-NO 24 2 min 0,000 mm 3,4 UV-I 728 W/m 11,3 C 19,8 C 6,4 km/h (2 Bft) 97,92 %
01.04.2017 13:34 20,0 C 53 % 1009,7 hPa 0,0 l/m 5,6 km/h (1 Bft) NO 49 2 min 0,000 mm 3,4 UV-I 728 W/m 10,1 C 20,0 C 9,7 km/h (2 Bft) 100,00 %
01.04.2017 13:36 20,1 C 60 % 1009,6 hPa 0,0 l/m 3,2 km/h (1 Bft) O-NO 71 2 min 0,000 mm 3,3 UV-I 727 W/m 12,1 C 20,1 C 8,0 km/h (2 Bft) 95,74 %
01.04.2017 13:38 20,1 C 54 % 1009,6 hPa 0,0 l/m 2,2 km/h (1 Bft) NO 44 2 min 0,000 mm 3,3 UV-I 727 W/m 10,5 C 20,1 C 4,8 km/h (1 Bft) 97,87 %
01.04.2017 13:40 19,9 C 55 % 1009,6 hPa 0,0 l/m 5,9 km/h (2 Bft) N 11 2 min 0,000 mm 3,3 UV-I 723 W/m 10,6 C 19,9 C 11,3 km/h (2 Bft) 97,37 %
01.04.2017 13:42 20,0 C 57 % 1009,6 hPa 0,0 l/m 1,8 km/h (1 Bft) N 9 2 min 0,000 mm 3,3 UV-I 722 W/m 11,2 C 20,0 C 3,2 km/h (1 Bft) 100,00 %
01.04.2017 13:44 20,1 C 59 % 1009,5 hPa 0,0 l/m 3,8 km/h (1 Bft) N-NO 21 2 min 0,000 mm 3,3 UV-I 723 W/m 11,8 C 20,1 C 8,0 km/h (2 Bft) 95,74 %
01.04.2017 13:46 20,0 C 54 % 1009,5 hPa 0,0 l/m 1,8 km/h (1 Bft) NW 325 2 min 0,000 mm 3,3 UV-I 723 W/m 10,4 C 20,0 C 4,8 km/h (1 Bft) 93,62 %
01.04.2017 13:48 20,2 C 53 % 1009,5 hPa 0,0 l/m 3,4 km/h (1 Bft) NO 53 2 min 0,000 mm 3,3 UV-I 720 W/m 10,3 C 20,2 C 6,4 km/h (2 Bft) 100,00 %
01.04.2017 13:50 20,4 C 55 % 1009,5 hPa 0,0 l/m 7,8 km/h (2 Bft) NO 49 2 min 0,000 mm 3,3 UV-I 719 W/m 11,1 C 19,8 C 11,3 km/h (2 Bft) 97,87 %
01.04.2017 13:52 20,5 C 54 % 1009,5 hPa 0,0 l/m 2,2 km/h (1 Bft) N-NO 18 2 min 0,000 mm 3,3 UV-I 717 W/m 10,9 C 20,5 C 6,4 km/h (2 Bft) 97,87 %
01.04.2017 13:54 20,4 C 52 % 1009,4 hPa 0,0 l/m 3,3 km/h (1 Bft) N-NO 18 2 min 0,000 mm 3,3 UV-I 715 W/m 10,2 C 20,4 C 6,4 km/h (2 Bft) 97,87 %
01.04.2017 13:56 20,3 C 51 % 1009,4 hPa 0,0 l/m 2,3 km/h (1 Bft) N-NO 28 2 min 0,000 mm 3,3 UV-I 717 W/m 9,8 C 20,3 C 6,4 km/h (2 Bft) 95,74 %
01.04.2017 13:58 20,6 C 56 % 1009,4 hPa 0,0 l/m 4,3 km/h (1 Bft) NO 46 2 min 0,000 mm 3,2 UV-I 712 W/m 11,5 C 20,6 C 11,3 km/h (2 Bft) 100,00 %
01.04.2017 14:00 20,7 C 49 % 1009,4 hPa 0,0 l/m 7,8 km/h (2 Bft) NO 45 2 min 0,432 mm 3,2 UV-I 705 W/m 9,6 C 20,2 C 11,3 km/h (2 Bft) 100,00 %
01.04.2017 14:02 20,6 C 49 % 1009,3 hPa 0,0 l/m 5,2 km/h (1 Bft) NO 49 2 min 0,000 mm 3,2 UV-I 706 W/m 9,5 C 20,6 C 9,7 km/h (2 Bft) 100,00 %
01.04.2017 14:04 20,6 C 53 % 1009,3 hPa 0,0 l/m 3,1 km/h (1 Bft) NO 49 2 min 0,000 mm 3,2 UV-I 706 W/m 10,7 C 20,6 C 6,4 km/h (2 Bft) 93,62 %
01.04.2017 14:06 20,8 C 53 % 1009,3 hPa 0,0 l/m 4,7 km/h (1 Bft) N-NO 13 2 min 0,000 mm 3,2 UV-I 702 W/m 10,9 C 20,8 C 8,0 km/h (2 Bft) 95,83 %
01.04.2017 14:08 20,9 C 51 % 1009,2 hPa 0,0 l/m 3,5 km/h (1 Bft) N-NO 28 2 min 0,000 mm 3,1 UV-I 704 W/m 10,4 C 20,9 C 11,3 km/h (2 Bft) 100,00 %
01.04.2017 14:10 20,9 C 52 % 1009,2 hPa 0,0 l/m 3,5 km/h (1 Bft) N 11 2 min 0,000 mm 3,1 UV-I 704 W/m 10,7 C 20,9 C 9,7 km/h (2 Bft) 93,62 %
01.04.2017 14:12 20,8 C 49 % 1009,1 hPa 0,0 l/m 6,2 km/h (2 Bft) N-NO 19 2 min 0,000 mm 3,1 UV-I 702 W/m 9,7 C 20,8 C 14,5 km/h (3 Bft) 94,00 %
01.04.2017 14:14 20,8 C 52 % 1009,1 hPa 0,0 l/m 3,8 km/h (1 Bft) O-NO 57 2 min 0,000 mm 3,1 UV-I 704 W/m 10,6 C 20,8 C 11,3 km/h (2 Bft) 97,87 %
01.04.2017 14:16 20,7 C 50 % 1009,1 hPa 0,0 l/m 2,9 km/h (1 Bft) N-NO 22 2 min 0,000 mm 3,1 UV-I 700 W/m 9,9 C 20,7 C 8,0 km/h (2 Bft) 98,00 %
01.04.2017 14:18 20,6 C 49 % 1009,1 hPa 0,0 l/m 1,0 km/h (0 Bft) N-NW 348 2 min 0,000 mm 3,1 UV-I 698 W/m 9,5 C 20,6 C 3,2 km/h (1 Bft) 100,00 %
01.04.2017 14:20 20,7 C 49 % 1009,1 hPa 0,0 l/m 1,2 km/h (1 Bft) N 351 2 min 0,000 mm 3,1 UV-I 694 W/m 9,6 C 20,7 C 4,8 km/h (1 Bft) 95,74 %
01.04.2017 14:22 20,8 C 52 % 1009,0 hPa 0,0 l/m 5,2 km/h (1 Bft) NO 43 2 min 0,000 mm 3,1 UV-I 694 W/m 10,6 C 20,8 C 9,7 km/h (2 Bft) 95,74 %
01.04.2017 14:24 20,9 C 52 % 1008,9 hPa 0,0 l/m 5,7 km/h (1 Bft) NO 37 2 min 0,000 mm 3,0 UV-I 690 W/m 10,7 C 20,9 C 14,5 km/h (3 Bft) 93,62 %
01.04.2017 14:26 20,9 C 46 % 1009,0 hPa 0,0 l/m 3,9 km/h (1 Bft) NO 41 2 min 0,000 mm 3,0 UV-I 683 W/m 8,8 C 20,9 C 11,3 km/h (2 Bft) 93,62 %
01.04.2017 14:28 20,9 C 47 % 1009,0 hPa 0,0 l/m 1,9 km/h (1 Bft) NO 41 2 min 0,000 mm 3,0 UV-I 680 W/m 9,2 C 20,9 C 4,8 km/h (1 Bft) 93,62 %
01.04.2017 14:30 20,9 C 49 % 1009,0 hPa 0,0 l/m 6,3 km/h (2 Bft) N 10 2 min 0,000 mm 3,0 UV-I 681 W/m 9,8 C 20,9 C 11,3 km/h (2 Bft) 100,00 %
01.04.2017 14:32 20,9 C 51 % 1009,0 hPa 0,0 l/m 4,0 km/h (1 Bft) NO 42 2 min 0,000 mm 2,9 UV-I 675 W/m 10,4 C 20,9 C 9,7 km/h (2 Bft) 93,62 %
01.04.2017 14:34 21,2 C 48 % 1009,0 hPa 0,0 l/m 7,9 km/h (2 Bft) NO 54 2 min 0,000 mm 2,9 UV-I 674 W/m 9,7 C 20,6 C 14,5 km/h (3 Bft) 97,87 %
01.04.2017 14:36 21,3 C 45 % 1009,0 hPa 0,0 l/m 6,7 km/h (2 Bft) NO 46 2 min 0,000 mm 2,9 UV-I 667 W/m 8,9 C 21,2 C 9,7 km/h (2 Bft) 98,00 %
01.04.2017 14:38 21,4 C 46 % 1008,9 hPa 0,0 l/m 2,2 km/h (1 Bft) N-NO 30 2 min 0,000 mm 2,8 UV-I 664 W/m 9,3 C 21,4 C 4,8 km/h (1 Bft) 94,00 %
01.04.2017 14:40 21,4 C 47 % 1008,9 hPa 0,0 l/m 2,0 km/h (1 Bft) NW 311 2 min 0,000 mm 2,8 UV-I 664 W/m 9,6 C 21,4 C 4,8 km/h (1 Bft) 95,74 %
01.04.2017 14:42 21,3 C 49 % 1008,9 hPa 0,0 l/m 2,1 km/h (1 Bft) NW 319 2 min 0,000 mm 2,8 UV-I 662 W/m 10,1 C 21,3 C 6,4 km/h (2 Bft) 97,87 %
01.04.2017 14:44 21,3 C 43 % 1008,8 hPa 0,0 l/m 1,7 km/h (1 Bft) N 349 2 min 0,000 mm 2,8 UV-I 660 W/m 8,2 C 21,3 C 6,4 km/h (2 Bft) 95,74 %
01.04.2017 14:46 21,3 C 46 % 1008,8 hPa 0,0 l/m 2,8 km/h (1 Bft) N-NO 33 2 min 0,000 mm 2,7 UV-I 656 W/m 9,2 C 21,3 C 6,4 km/h (2 Bft) 97,87 %
01.04.2017 14:48 21,3 C 42 % 1008,8 hPa 0,0 l/m 1,6 km/h (1 Bft) N 9 2 min 0,000 mm 2,7 UV-I 652 W/m 7,9 C 21,3 C 4,8 km/h (1 Bft) 89,36 %
01.04.2017 14:50 21,3 C 43 % 1008,8 hPa 0,0 l/m 0,6 km/h (0 Bft) N 5 2 min 0,000 mm 2,7 UV-I 654 W/m 8,2 C 21,3 C 3,2 km/h (1 Bft) 93,75 %
01.04.2017 14:52 21,3 C 44 % 1008,8 hPa 0,0 l/m 2,2 km/h (1 Bft) N 11 2 min 0,000 mm 2,7 UV-I 646 W/m 8,5 C 21,3 C 8,0 km/h (2 Bft) 96,00 %
01.04.2017 14:54 21,6 C 46 % 1008,7 hPa 0,0 l/m 1,2 km/h (1 Bft) N-NW 337 2 min 0,000 mm 2,6 UV-I 642 W/m 9,5 C 21,6 C 3,2 km/h (1 Bft) 97,37 %
01.04.2017 14:56 21,6 C 46 % 1008,8 hPa 0,0 l/m 3,7 km/h (1 Bft) N-NO 22 2 min 0,000 mm 2,6 UV-I 637 W/m 9,5 C 21,6 C 8,0 km/h (2 Bft) 95,74 %
01.04.2017 14:58 21,4 C 43 % 1008,7 hPa 0,0 l/m 2,9 km/h (1 Bft) N-NO 21 2 min 0,000 mm 2,6 UV-I 635 W/m 8,3 C 21,4 C 8,0 km/h (2 Bft) 95,74 %
01.04.2017 15:00 21,4 C 41 % 1008,7 hPa 0,0 l/m 0,6 km/h (0 Bft) N 350 2 min 0,432 mm 2,6 UV-I 631 W/m 7,6 C 21,4 C 3,2 km/h (1 Bft) 96,00 %
01.04.2017 15:03 21,6 C 40 % 1008,7 hPa 0,0 l/m 3,0 km/h (1 Bft) W 268 3 min 0,000 mm 2,5 UV-I 631 W/m 7,4 C 21,6 C 4,8 km/h (1 Bft) 94,29 %
01.04.2017 15:04 21,7 C 41 % 1008,7 hPa 0,0 l/m 0,8 km/h (0 Bft) W 268 1 min 0,000 mm 2,5 UV-I 631 W/m 7,9 C 21,7 C 3,2 km/h (1 Bft) 100,00 %
01.04.2017 15:06 21,8 C 41 % 1008,6 hPa 0,0 l/m 3,4 km/h (1 Bft) N-NO 21 2 min 0,000 mm 2,5 UV-I 626 W/m 8,0 C 21,8 C 8,0 km/h (2 Bft) 94,00 %
01.04.2017 15:08 21,9 C 43 % 1008,6 hPa 0,0 l/m 3,2 km/h (1 Bft) N-NO 12 2 min 0,000 mm 2,4 UV-I 621 W/m 8,7 C 21,9 C 8,0 km/h (2 Bft) 95,74 %
01.04.2017 15:10 21,8 C 43 % 1008,6 hPa 0,0 l/m 6,0 km/h (2 Bft) O-NO 58 2 min 0,000 mm 2,4 UV-I 616 W/m 8,7 C 21,8 C 8,0 km/h (2 Bft) 94,74 %
01.04.2017 15:12 21,8 C 39 % 1008,5 hPa 0,0 l/m 3,5 km/h (1 Bft) O 88 2 min 0,000 mm 2,4 UV-I 613 W/m 7,2 C 21,8 C 6,4 km/h (2 Bft) 96,00 %
01.04.2017 15:14 21,7 C 41 % 1008,5 hPa 0,0 l/m 1,0 km/h (0 Bft) N 11 2 min 0,000 mm 2,3 UV-I 606 W/m 7,9 C 21,7 C 4,8 km/h (1 Bft) 95,74 %
01.04.2017 15:16 21,7 C 49 % 1008,5 hPa 0,0 l/m 3,4 km/h (1 Bft) NO 34 2 min 0,000 mm 2,3 UV-I 598 W/m 10,5 C 21,7 C 8,0 km/h (2 Bft) 94,00 %
01.04.2017 15:18 21,8 C 40 % 1008,5 hPa 0,0 l/m 2,6 km/h (1 Bft) N-NO 19 2 min 0,000 mm 2,3 UV-I 592 W/m 7,6 C 21,8 C 4,8 km/h (1 Bft) 95,74 %
01.04.2017 15:20 21,7 C 40 % 1008,5 hPa 0,0 l/m 0,4 km/h (0 Bft) N-NO 19 2 min 0,000 mm 2,2 UV-I 593 W/m 7,5 C 21,7 C 3,2 km/h (1 Bft) 100,00 %
01.04.2017 15:22 21,7 C 41 % 1008,5 hPa 0,0 l/m 1,4 km/h (1 Bft) O-NO 71 2 min 0,000 mm 2,2 UV-I 590 W/m 7,9 C 21,7 C 3,2 km/h (1 Bft) 100,00 %
01.04.2017 15:24 21,9 C 40 % 1008,4 hPa 0,0 l/m 4,5 km/h (1 Bft) NO 51 2 min 0,000 mm 2,2 UV-I 588 W/m 7,7 C 21,9 C 6,4 km/h (2 Bft) 97,87 %
01.04.2017 15:26 22,1 C 42 % 1008,4 hPa 0,0 l/m 3,5 km/h (1 Bft) N-NO 13 2 min 0,000 mm 2,2 UV-I 587 W/m 8,6 C 22,1 C 6,4 km/h (2 Bft) 100,00 %
01.04.2017 15:28 22,1 C 51 % 1008,4 hPa 0,0 l/m 3,9 km/h (1 Bft) N 9 2 min 0,000 mm 2,2 UV-I 582 W/m 11,5 C 22,1 C 11,3 km/h (2 Bft) 95,74 %
01.04.2017 15:30 21,9 C 43 % 1008,3 hPa 0,0 l/m 6,7 km/h (2 Bft) N-NO 33 2 min 0,000 mm 2,1 UV-I 577 W/m 8,7 C 21,8 C 14,5 km/h (3 Bft) 100,00 %
01.04.2017 15:32 21,8 C 45 % 1008,3 hPa 0,0 l/m 3,1 km/h (1 Bft) N 11 2 min 0,000 mm 2,1 UV-I 574 W/m 9,3 C 21,8 C 6,4 km/h (2 Bft) 98,00 %
01.04.2017 15:34 21,7 C 37 % 1008,3 hPa 0,0 l/m 0,9 km/h (0 Bft) N 5 2 min 0,000 mm 2,1 UV-I 570 W/m 6,4 C 21,7 C 3,2 km/h (1 Bft) 97,87 %
01.04.2017 15:36 21,6 C 41 % 1008,3 hPa 0,0 l/m 2,9 km/h (1 Bft) O-SO 111 2 min 0,000 mm 2,1 UV-I 567 W/m 7,8 C 21,6 C 8,0 km/h (2 Bft) 100,00 %
01.04.2017 15:38 21,6 C 43 % 1008,3 hPa 0,0 l/m 2,6 km/h (1 Bft) N-NO 26 2 min 0,000 mm 2,0 UV-I 564 W/m 8,5 C 21,6 C 6,4 km/h (2 Bft) 97,87 %
01.04.2017 15:40 21,7 C 46 % 1008,2 hPa 0,0 l/m 1,5 km/h (1 Bft) N 11 2 min 0,000 mm 2,0 UV-I 560 W/m 9,6 C 21,7 C 4,8 km/h (1 Bft) 95,74 %
01.04.2017 15:42 21,7 C 43 % 1008,2 hPa 0,0 l/m 4,6 km/h (1 Bft) N-NO 30 2 min 0,000 mm 2,0 UV-I 553 W/m 8,6 C 21,7 C 14,5 km/h (3 Bft) 93,62 %
01.04.2017 15:44 21,7 C 42 % 1008,2 hPa 0,0 l/m 4,5 km/h (1 Bft) N-NW 340 2 min 0,000 mm 1,9 UV-I 548 W/m 8,2 C 21,7 C 14,5 km/h (3 Bft) 97,87 %
01.04.2017 15:46 21,7 C 48 % 1008,2 hPa 0,0 l/m 4,1 km/h (1 Bft) NO 36 2 min 0,000 mm 1,9 UV-I 546 W/m 10,2 C 21,7 C 8,0 km/h (2 Bft) 97,56 %
01.04.2017 15:48 21,8 C 40 % 1008,1 hPa 0,0 l/m 1,5 km/h (1 Bft) NO 35 2 min 0,000 mm 1,9 UV-I 543 W/m 7,6 C 21,8 C 3,2 km/h (1 Bft) 100,00 %
01.04.2017 15:50 22,1 C 39 % 1008,1 hPa 0,0 l/m 4,9 km/h (1 Bft) N-NO 31 2 min 0,000 mm 1,9 UV-I 537 W/m 7,5 C 22,1 C 8,0 km/h (2 Bft) 97,87 %
01.04.2017 15:52 22,1 C 42 % 1008,1 hPa 0,0 l/m 5,2 km/h (1 Bft) O-NO 71 2 min 0,000 mm 1,8 UV-I 529 W/m 8,6 C 22,1 C 11,3 km/h (2 Bft) 97,87 %
01.04.2017 15:54 21,9 C 44 % 1008,1 hPa 0,0 l/m 2,2 km/h (1 Bft) N-NO 32 2 min 0,000 mm 1,8 UV-I 523 W/m 9,1 C 21,9 C 4,8 km/h (1 Bft) 98,00 %
01.04.2017 15:56 21,7 C 43 % 1008,1 hPa 0,0 l/m 1,9 km/h (1 Bft) NW 322 2 min 0,000 mm 1,7 UV-I 519 W/m 8,6 C 21,7 C 3,2 km/h (1 Bft) 95,74 %
01.04.2017 15:58 21,7 C 42 % 1008,1 hPa 0,0 l/m 1,9 km/h (1 Bft) W 274 2 min 0,000 mm 1,7 UV-I 517 W/m 8,2 C 21,7 C 4,8 km/h (1 Bft) 100,00 %
01.04.2017 16:00 21,7 C 47 % 1008,1 hPa 0,0 l/m 2,2 km/h (1 Bft) N-NW 336 2 min 0,000 mm 1,7 UV-I 513 W/m 9,9 C 21,7 C 6,4 km/h (2 Bft) 95,74 %
01.04.2017 16:03 21,7 C 39 % 1008,1 hPa 0,0 l/m 1,6 km/h (1 Bft) W-NW 299 3 min 0,381 mm 1,7 UV-I 507 W/m 7,1 C 21,7 C 3,2 km/h (1 Bft) 97,18 %
01.04.2017 16:04 21,7 C 38 % 1008,1 hPa 0,0 l/m 0,3 km/h (0 Bft) W-NW 299 1 min 0,000 mm 1,6 UV-I 500 W/m 6,8 C 21,7 C 1,6 km/h (1 Bft) 91,30 %
01.04.2017 16:06 21,6 C 43 % 1008,1 hPa 0,0 l/m 0,4 km/h (0 Bft) NW 308 2 min 0,000 mm 1,6 UV-I 497 W/m 8,5 C 21,6 C 1,6 km/h (1 Bft) 97,92 %
01.04.2017 16:08 21,7 C 40 % 1008,0 hPa 0,0 l/m 0,9 km/h (0 Bft) N 350 2 min 0,000 mm 1,6 UV-I 490 W/m 7,5 C 21,7 C 3,2 km/h (1 Bft) 95,74 %
01.04.2017 16:10 21,8 C 43 % 1008,0 hPa 0,0 l/m 0,9 km/h (0 Bft) N-NW 328 2 min 0,000 mm 1,5 UV-I 474 W/m 8,7 C 21,8 C 1,6 km/h (1 Bft) 92,00 %
01.04.2017 16:13 21,9 C 40 % 1008,0 hPa 0,0 l/m 2,9 km/h (1 Bft) O-NO 63 3 min 0,000 mm 1,5 UV-I 480 W/m 7,7 C 21,9 C 6,4 km/h (2 Bft) 95,52 %
01.04.2017 16:14 22,0 C 36 % 1008,0 hPa 0,0 l/m 6,9 km/h (2 Bft) O-NO 58 1 min 0,000 mm 1,5 UV-I 475 W/m 6,2 C 21,8 C 9,7 km/h (2 Bft) 95,83 %
01.04.2017 16:16 22,2 C 34 % 1007,9 hPa 0,0 l/m 8,5 km/h (2 Bft) N-NO 29 2 min 0,000 mm 1,5 UV-I 471 W/m 5,6 C 21,5 C 14,5 km/h (3 Bft) 100,00 %
01.04.2017 16:18 22,2 C 33 % 1007,9 hPa 0,0 l/m 9,1 km/h (2 Bft) NO 55 2 min 0,000 mm 1,4 UV-I 461 W/m 5,2 C 21,3 C 12,9 km/h (3 Bft) 95,74 %
01.04.2017 16:20 22,3 C 33 % 1007,9 hPa 0,0 l/m 8,3 km/h (2 Bft) NO 55 2 min 0,000 mm 1,4 UV-I 455 W/m 5,2 C 21,7 C 12,9 km/h (3 Bft) 97,87 %
01.04.2017 16:22 22,3 C 36 % 1007,9 hPa 0,0 l/m 6,2 km/h (2 Bft) NO 50 2 min 0,000 mm 1,4 UV-I 453 W/m 6,5 C 22,3 C 9,7 km/h (2 Bft) 100,00 %
01.04.2017 16:24 22,2 C 37 % 1007,9 hPa 0,0 l/m 3,2 km/h (1 Bft) N 350 2 min 0,000 mm 1,3 UV-I 450 W/m 6,8 C 22,2 C 6,4 km/h (2 Bft) 100,00 %
01.04.2017 16:26 22,1 C 35 % 1007,9 hPa 0,0 l/m 1,5 km/h (1 Bft) N-NW 332 2 min 0,000 mm 1,3 UV-I 444 W/m 5,9 C 22,1 C 3,2 km/h (1 Bft) 100,00 %
01.04.2017 16:28 22,0 C 38 % 1007,9 hPa 0,0 l/m 4,9 km/h (1 Bft) N-NO 32 2 min 0,000 mm 1,3 UV-I 434 W/m 7,0 C 22,0 C 12,9 km/h (3 Bft) 100,00 %
01.04.2017 16:30 22,1 C 36 % 1007,9 hPa 0,0 l/m 6,1 km/h (2 Bft) N-NO 31 2 min 0,000 mm 1,3 UV-I 428 W/m 6,3 C 22,1 C 12,9 km/h (3 Bft) 95,74 %
01.04.2017 16:32 22,1 C 39 % 1007,8 hPa 0,0 l/m 6,5 km/h (2 Bft) N-NO 17 2 min 0,000 mm 1,2 UV-I 418 W/m 7,5 C 22,1 C 14,5 km/h (3 Bft) 92,00 %
01.04.2017 16:34 21,9 C 39 % 1007,8 hPa 0,0 l/m 6,4 km/h (2 Bft) NO 35 2 min 0,000 mm 1,2 UV-I 418 W/m 7,3 C 21,9 C 14,5 km/h (3 Bft) 93,62 %
01.04.2017 16:36 21,9 C 34 % 1007,8 hPa 0,0 l/m 7,2 km/h (2 Bft) NO 53 2 min 0,000 mm 1,2 UV-I 418 W/m 5,3 C 21,6 C 9,7 km/h (2 Bft) 97,87 %
01.04.2017 16:38 22,1 C 38 % 1007,8 hPa 0,0 l/m 5,2 km/h (1 Bft) N-NO 14 2 min 0,000 mm 1,2 UV-I 414 W/m 7,1 C 22,1 C 8,0 km/h (2 Bft) 91,49 %
01.04.2017 16:40 22,0 C 38 % 1007,8 hPa 0,0 l/m 1,5 km/h (1 Bft) N-NO 31 2 min 0,000 mm 1,1 UV-I 411 W/m 7,0 C 22,0 C 4,8 km/h (1 Bft) 89,36 %
01.04.2017 16:42 21,9 C 38 % 1007,7 hPa 0,0 l/m 8,5 km/h (2 Bft) NO 41 2 min 0,000 mm 1,1 UV-I 406 W/m 6,9 C 21,2 C 12,9 km/h (3 Bft) 94,00 %
01.04.2017 16:44 21,8 C 37 % 1007,7 hPa 0,0 l/m 5,4 km/h (1 Bft) N-NO 30 2 min 0,000 mm 1,1 UV-I 402 W/m 6,5 C 21,8 C 9,7 km/h (2 Bft) 92,00 %
01.04.2017 16:46 21,8 C 36 % 1007,7 hPa 0,0 l/m 1,0 km/h (0 Bft) N-NW 327 2 min 0,000 mm 1,0 UV-I 395 W/m 6,1 C 21,8 C 3,2 km/h (1 Bft) 91,67 %
01.04.2017 16:48 21,7 C 40 % 1007,7 hPa 0,0 l/m 1,7 km/h (1 Bft) O-NO 65 2 min 0,000 mm 1,0 UV-I 391 W/m 7,5 C 21,7 C 4,8 km/h (1 Bft) 91,49 %
01.04.2017 16:50 21,6 C 40 % 1007,7 hPa 0,0 l/m 1,0 km/h (0 Bft) W-NW 294 2 min 0,000 mm 1,0 UV-I 386 W/m 7,4 C 21,6 C 3,2 km/h (1 Bft) 91,49 %
01.04.2017 16:52 21,7 C 44 % 1007,7 hPa 0,0 l/m 4,7 km/h (1 Bft) N-NO 24 2 min 0,000 mm 1,0 UV-I 379 W/m 8,9 C 21,7 C 14,5 km/h (3 Bft) 91,49 %
01.04.2017 16:54 21,7 C 38 % 1007,6 hPa 0,0 l/m 8,0 km/h (2 Bft) N-NO 18 2 min 0,000 mm 1,0 UV-I 371 W/m 6,8 C 21,1 C 12,9 km/h (3 Bft) 89,36 %
01.04.2017 16:56 21,7 C 38 % 1007,6 hPa 0,0 l/m 1,3 km/h (1 Bft) N-NO 15 2 min 0,000 mm 0,9 UV-I 365 W/m 6,8 C 21,7 C 4,8 km/h (1 Bft) 93,62 %
01.04.2017 16:58 21,6 C 41 % 1007,6 hPa 0,0 l/m 5,2 km/h (1 Bft) N-NO 15 2 min 0,000 mm 0,9 UV-I 357 W/m 7,8 C 21,6 C 8,0 km/h (2 Bft) 95,74 %
01.04.2017 17:00 21,6 C 39 % 1007,6 hPa 0,0 l/m 4,1 km/h (1 Bft) N-NO 28 2 min 0,304 mm 0,9 UV-I 352 W/m 7,0 C 21,6 C 6,4 km/h (2 Bft) 96,00 %
01.04.2017 17:02 21,8 C 37 % 1007,6 hPa 0,0 l/m 5,0 km/h (1 Bft) NO 50 2 min 0,000 mm 0,9 UV-I 346 W/m 6,5 C 21,8 C 8,0 km/h (2 Bft) 93,75 %
01.04.2017 17:04 21,8 C 40 % 1007,6 hPa 0,0 l/m 3,4 km/h (1 Bft) NW 314 2 min 0,000 mm 0,8 UV-I 342 W/m 7,6 C 21,8 C 9,7 km/h (2 Bft) 91,49 %
01.04.2017 17:06 21,7 C 38 % 1007,6 hPa 0,0 l/m 1,1 km/h (1 Bft) N-NW 340 2 min 0,000 mm 0,8 UV-I 335 W/m 6,8 C 21,7 C 1,6 km/h (1 Bft) 93,62 %
01.04.2017 17:08 21,8 C 36 % 1007,6 hPa 0,0 l/m 0,6 km/h (0 Bft) N-NW 340 2 min 0,000 mm 0,8 UV-I 330 W/m 6,1 C 21,8 C 1,6 km/h (1 Bft) 92,00 %
01.04.2017 17:10 21,8 C 37 % 1007,6 hPa 0,0 l/m 2,5 km/h (1 Bft) N-NO 28 2 min 0,000 mm 0,8 UV-I 324 W/m 6,5 C 21,8 C 4,8 km/h (1 Bft) 95,12 %
01.04.2017 17:12 21,9 C 39 % 1007,5 hPa 0,0 l/m 3,0 km/h (1 Bft) N-NO 13 2 min 0,000 mm 0,7 UV-I 316 W/m 7,3 C 21,9 C 4,8 km/h (1 Bft) 92,45 %
01.04.2017 17:14 22,1 C 34 % 1007,5 hPa 0,0 l/m 3,2 km/h (1 Bft) N 355 2 min 0,000 mm 0,7 UV-I 315 W/m 5,5 C 22,1 C 6,4 km/h (2 Bft) 94,74 %
01.04.2017 17:16 22,1 C 41 % 1007,5 hPa 0,0 l/m 2,0 km/h (1 Bft) N-NO 12 2 min 0,000 mm 0,7 UV-I 310 W/m 8,2 C 22,1 C 6,4 km/h (2 Bft) 95,74 %
01.04.2017 17:18 22,0 C 38 % 1007,5 hPa 0,0 l/m 4,5 km/h (1 Bft) NO 39 2 min 0,000 mm 0,7 UV-I 303 W/m 7,0 C 22,0 C 8,0 km/h (2 Bft) 95,74 %
01.04.2017 17:20 22,1 C 37 % 1007,5 hPa 0,0 l/m 6,6 km/h (2 Bft) N-NO 30 2 min 0,000 mm 0,7 UV-I 297 W/m 6,7 C 22,0 C 11,3 km/h (2 Bft) 97,92 %
01.04.2017 17:22 22,1 C 38 % 1007,5 hPa 0,0 l/m 6,0 km/h (2 Bft) N-NO 24 2 min 0,000 mm 0,6 UV-I 293 W/m 7,1 C 22,1 C 8,0 km/h (2 Bft) 93,62 %
01.04.2017 17:24 21,9 C 37 % 1007,5 hPa 0,0 l/m 5,3 km/h (1 Bft) NO 38 2 min 0,000 mm 0,6 UV-I 287 W/m 6,5 C 21,9 C 8,0 km/h (2 Bft) 94,00 %
01.04.2017 17:26 21,9 C 36 % 1007,5 hPa 0,0 l/m 7,0 km/h (2 Bft) NO 42 2 min 0,000 mm 0,6 UV-I 280 W/m 6,1 C 21,7 C 14,5 km/h (3 Bft) 91,43 %
01.04.2017 17:28 22,1 C 36 % 1007,4 hPa 0,0 l/m 9,1 km/h (2 Bft) NO 53 2 min 0,000 mm 0,6 UV-I 273 W/m 6,3 C 21,2 C 12,9 km/h (3 Bft) 96,77 %
01.04.2017 17:30 22,1 C 35 % 1007,4 hPa 0,0 l/m 9,0 km/h (2 Bft) O-NO 67 2 min 0,000 mm 0,6 UV-I 270 W/m 5,9 C 21,2 C 12,9 km/h (3 Bft) 93,62 %
01.04.2017 17:32 22,1 C 36 % 1007,5 hPa 0,0 l/m 9,8 km/h (2 Bft) O-NO 77 2 min 0,000 mm 0,5 UV-I 265 W/m 6,3 C 21,0 C 14,5 km/h (3 Bft) 91,49 %
01.04.2017 17:34 22,1 C 35 % 1007,5 hPa 0,0 l/m 7,6 km/h (2 Bft) O 80 2 min 0,000 mm 0,5 UV-I 260 W/m 5,9 C 21,7 C 12,9 km/h (3 Bft) 93,62 %
01.04.2017 17:36 22,1 C 37 % 1007,5 hPa 0,0 l/m 5,0 km/h (1 Bft) NO 46 2 min 0,000 mm 0,5 UV-I 252 W/m 6,7 C 22,1 C 8,0 km/h (2 Bft) 93,62 %
01.04.2017 17:38 22,1 C 38 % 1007,5 hPa 0,0 l/m 4,8 km/h (1 Bft) O-NO 61 2 min 0,000 mm 0,5 UV-I 249 W/m 7,1 C 22,1 C 8,0 km/h (2 Bft) 93,62 %
01.04.2017 17:40 22,1 C 37 % 1007,5 hPa 0,0 l/m 5,5 km/h (1 Bft) O-NO 73 2 min 0,000 mm 0,5 UV-I 244 W/m 6,7 C 22,1 C 9,7 km/h (2 Bft) 100,00 %
01.04.2017 17:42 22,1 C 36 % 1007,5 hPa 0,0 l/m 6,7 km/h (2 Bft) O-NO 78 2 min 0,000 mm 0,1 UV-I 240 W/m 6,3 C 22,0 C 8,0 km/h (2 Bft) 95,74 %
01.04.2017 17:44 22,1 C 37 % 1007,5 hPa 0,0 l/m 6,7 km/h (2 Bft) O-NO 78 2 min 0,000 mm 0,0 UV-I 231 W/m 6,7 C 22,0 C 14,5 km/h (3 Bft) 93,62 %
01.04.2017 17:46 22,0 C 36 % 1007,5 hPa 0,0 l/m 8,5 km/h (2 Bft) NO 55 2 min 0,000 mm 0,0 UV-I 229 W/m 6,2 C 21,3 C 12,9 km/h (3 Bft) 97,87 %
01.04.2017 17:49 21,9 C 39 % 1007,5 hPa 0,0 l/m 4,8 km/h (1 Bft) O-NO 70 3 min 0,000 mm 0,0 UV-I 224 W/m 7,3 C 21,9 C 8,0 km/h (2 Bft) 98,65 %
01.04.2017 17:50 21,9 C 39 % 1007,5 hPa 0,0 l/m 9,1 km/h (2 Bft) O-NO 74 1 min 0,000 mm 0,0 UV-I 217 W/m 7,3 C 21,0 C 11,3 km/h (2 Bft) 100,00 %
01.04.2017 17:52 21,8 C 38 % 1007,5 hPa 0,0 l/m 8,7 km/h (2 Bft) NO 46 2 min 0,000 mm 0,0 UV-I 213 W/m 6,8 C 21,0 C 14,5 km/h (3 Bft) 100,00 %
01.04.2017 17:54 21,9 C 37 % 1007,5 hPa 0,0 l/m 6,3 km/h (2 Bft) NO 45 2 min 0,000 mm 0,0 UV-I 208 W/m 6,5 C 21,9 C 9,7 km/h (2 Bft) 97,22 %
01.04.2017 17:56 21,9 C 36 % 1007,5 hPa 0,0 l/m 6,7 km/h (2 Bft) O-NO 63 2 min 0,000 mm 0,0 UV-I 199 W/m 6,1 C 21,8 C 8,0 km/h (2 Bft) 90,16 %
01.04.2017 17:58 21,8 C 38 % 1007,5 hPa 0,0 l/m 6,4 km/h (2 Bft) O-NO 67 2 min 0,000 mm 0,0 UV-I 190 W/m 6,8 C 21,8 C 11,3 km/h (2 Bft) 95,74 %
01.04.2017 18:00 21,8 C 36 % 1007,5 hPa 0,0 l/m 7,0 km/h (2 Bft) O-NO 78 2 min 0,000 mm 0,0 UV-I 189 W/m 6,1 C 21,6 C 11,3 km/h (2 Bft) 97,22 %
01.04.2017 18:02 21,8 C 36 % 1007,5 hPa 0,0 l/m 5,6 km/h (1 Bft) O-NO 74 2 min 0,229 mm 0,0 UV-I 174 W/m 6,1 C 21,8 C 8,0 km/h (2 Bft) 89,36 %
01.04.2017 18:04 21,8 C 39 % 1007,5 hPa 0,0 l/m 4,1 km/h (1 Bft) NO 46 2 min 0,000 mm 0,0 UV-I 171 W/m 7,2 C 21,8 C 4,8 km/h (1 Bft) 95,74 %
01.04.2017 18:06 21,8 C 39 % 1007,5 hPa 0,0 l/m 4,8 km/h (1 Bft) NO 45 2 min 0,000 mm 0,0 UV-I 173 W/m 7,2 C 21,8 C 8,0 km/h (2 Bft) 97,87 %
01.04.2017 18:08 21,7 C 41 % 1007,5 hPa 0,0 l/m 8,8 km/h (2 Bft) O-SO 106 2 min 0,000 mm 0,0 UV-I 167 W/m 7,9 C 20,9 C 14,5 km/h (3 Bft) 97,87 %
01.04.2017 18:10 21,6 C 41 % 1007,5 hPa 0,0 l/m 7,1 km/h (2 Bft) O 82 2 min 0,000 mm 0,0 UV-I 163 W/m 7,8 C 21,3 C 12,9 km/h (3 Bft) 93,62 %
01.04.2017 18:12 21,4 C 41 % 1007,5 hPa 0,0 l/m 7,2 km/h (2 Bft) O-NO 72 2 min 0,000 mm 0,0 UV-I 155 W/m 7,6 C 21,1 C 11,3 km/h (2 Bft) 93,62 %
01.04.2017 18:14 21,3 C 41 % 1007,5 hPa 0,0 l/m 7,2 km/h (2 Bft) O 82 2 min 0,000 mm 0,0 UV-I 147 W/m 7,5 C 21,0 C 11,3 km/h (2 Bft) 98,00 %
01.04.2017 18:16 21,3 C 40 % 1007,5 hPa 0,0 l/m 7,7 km/h (2 Bft) O-NO 69 2 min 0,000 mm 0,0 UV-I 131 W/m 7,1 C 20,8 C 12,9 km/h (3 Bft) 97,87 %
01.04.2017 18:18 21,2 C 40 % 1007,5 hPa 0,0 l/m 8,1 km/h (2 Bft) O-NO 72 2 min 0,000 mm 0,0 UV-I 128 W/m 7,1 C 20,6 C 12,9 km/h (3 Bft) 91,49 %
01.04.2017 18:20 21,2 C 40 % 1007,5 hPa 0,0 l/m 8,1 km/h (2 Bft) O-NO 74 2 min 0,000 mm 0,0 UV-I 124 W/m 7,1 C 20,6 C 12,9 km/h (3 Bft) 93,62 %
01.04.2017 18:22 21,1 C 41 % 1007,5 hPa 0,0 l/m 5,9 km/h (2 Bft) O-NO 76 2 min 0,000 mm 0,0 UV-I 114 W/m 7,3 C 21,1 C 9,7 km/h (2 Bft) 95,74 %
01.04.2017 18:24 21,0 C 41 % 1007,5 hPa 0,0 l/m 8,5 km/h (2 Bft) O-NO 69 2 min 0,000 mm 0,0 UV-I 105 W/m 7,2 C 20,2 C 12,9 km/h (3 Bft) 95,92 %
01.04.2017 18:26 20,9 C 42 % 1007,5 hPa 0,0 l/m 8,7 km/h (2 Bft) O 95 0 min 0,000 mm 0,0 UV-I 97 W/m 7,5 C 20,1 C 12,9 km/h (3 Bft) 89,36 %
01.04.2017 18:28 20,9 C 43 % 1007,5 hPa 0,0 l/m 6,9 km/h (2 Bft) O-NO 63 0 min 0,000 mm 0,0 UV-I 90 W/m 7,8 C 20,7 C 11,3 km/h (2 Bft) 93,62 %
01.04.2017 18:30 20,9 C 44 % 1007,5 hPa 0,0 l/m 6,1 km/h (2 Bft) O 87 0 min 0,000 mm 0,0 UV-I 87 W/m 8,2 C 20,9 C 12,9 km/h (3 Bft) 95,74 %
01.04.2017 18:32 20,8 C 44 % 1007,5 hPa 0,0 l/m 5,6 km/h (1 Bft) O 88 0 min 0,000 mm 0,0 UV-I 71 W/m 8,1 C 20,8 C 8,0 km/h (2 Bft) 97,87 %
01.04.2017 18:34 20,7 C 44 % 1007,5 hPa 0,0 l/m 5,6 km/h (1 Bft) O-NO 67 0 min 0,000 mm 0,0 UV-I 52 W/m 8,0 C 20,7 C 8,0 km/h (2 Bft) 95,92 %
01.04.2017 18:36 20,6 C 44 % 1007,5 hPa 0,0 l/m 8,8 km/h (2 Bft) O 99 0 min 0,000 mm 0,0 UV-I 45 W/m 7,9 C 19,7 C 11,3 km/h (2 Bft) 100,00 %
01.04.2017 18:38 20,4 C 45 % 1007,5 hPa 0,0 l/m 4,8 km/h (1 Bft) O 79 0 min 0,000 mm 0,0 UV-I 41 W/m 8,1 C 20,4 C 8,0 km/h (2 Bft) 93,88 %
01.04.2017 18:40 20,3 C 46 % 1007,5 hPa 0,0 l/m 5,3 km/h (1 Bft) O-NO 71 0 min 0,000 mm 0,0 UV-I 40 W/m 8,3 C 20,3 C 8,0 km/h (2 Bft) 88,00 %
01.04.2017 18:42 20,0 C 47 % 1007,5 hPa 0,0 l/m 4,9 km/h (1 Bft) O-SO 103 0 min 0,000 mm 0,0 UV-I 34 W/m 8,3 C 20,0 C 9,7 km/h (2 Bft) 95,83 %
01.04.2017 18:44 19,9 C 47 % 1007,5 hPa 0,0 l/m 5,5 km/h (1 Bft) O 101 0 min 0,000 mm 0,0 UV-I 30 W/m 8,3 C 19,9 C 9,7 km/h (2 Bft) 95,74 %
01.04.2017 18:46 19,8 C 47 % 1007,4 hPa 0,0 l/m 6,5 km/h (2 Bft) O 90 0 min 0,000 mm 0,0 UV-I 26 W/m 8,2 C 19,8 C 9,7 km/h (2 Bft) 94,00 %
01.04.2017 18:48 19,8 C 47 % 1007,5 hPa 0,0 l/m 5,6 km/h (1 Bft) O 83 0 min 0,000 mm 0,0 UV-I 25 W/m 8,2 C 19,8 C 9,7 km/h (2 Bft) 94,74 %
01.04.2017 18:50 19,7 C 48 % 1007,5 hPa 0,0 l/m 7,8 km/h (2 Bft) O 92 0 min 0,000 mm 0,0 UV-I 24 W/m 8,4 C 19,1 C 12,9 km/h (3 Bft) 89,36 %
01.04.2017 18:52 19,5 C 48 % 1007,5 hPa 0,0 l/m 6,7 km/h (2 Bft) O 92 0 min 0,000 mm 0,0 UV-I 21 W/m 8,2 C 19,4 C 11,3 km/h (2 Bft) 95,74 %
01.04.2017 18:54 19,4 C 48 % 1007,4 hPa 0,0 l/m 6,9 km/h (2 Bft) O-NO 71 0 min 0,000 mm 0,0 UV-I 21 W/m 8,1 C 19,2 C 11,3 km/h (2 Bft) 93,88 %
01.04.2017 18:56 19,3 C 48 % 1007,4 hPa 0,0 l/m 6,5 km/h (2 Bft) O 94 0 min 0,000 mm 0,0 UV-I 19 W/m 8,0 C 19,3 C 9,7 km/h (2 Bft) 95,74 %
01.04.2017 18:58 19,3 C 48 % 1007,4 hPa 0,0 l/m 5,5 km/h (1 Bft) O-NO 74 0 min 0,000 mm 0,0 UV-I 19 W/m 8,0 C 19,3 C 9,7 km/h (2 Bft) 89,36 %
01.04.2017 19:00 19,3 C 48 % 1007,4 hPa 0,0 l/m 6,0 km/h (2 Bft) O 87 0 min 0,000 mm 0,0 UV-I 18 W/m 8,0 C 19,3 C 9,7 km/h (2 Bft) 97,87 %
01.04.2017 19:02 19,2 C 48 % 1007,3 hPa 0,0 l/m 5,1 km/h (1 Bft) O 84 0 min 0,102 mm 0,0 UV-I 18 W/m 7,9 C 19,2 C 8,0 km/h (2 Bft) 92,68 %
01.04.2017 19:04 19,1 C 49 % 1007,3 hPa 0,0 l/m 6,4 km/h (2 Bft) O-NO 77 0 min 0,000 mm 0,0 UV-I 16 W/m 8,1 C 19,1 C 11,3 km/h (2 Bft) 96,00 %
01.04.2017 19:06 19,1 C 48 % 1007,4 hPa 0,0 l/m 6,4 km/h (2 Bft) O 90 0 min 0,000 mm 0,0 UV-I 16 W/m 7,8 C 19,1 C 11,3 km/h (2 Bft) 91,49 %
01.04.2017 19:08 18,9 C 50 % 1007,4 hPa 0,0 l/m 4,8 km/h (1 Bft) O 86 0 min 0,000 mm 0,0 UV-I 14 W/m 8,2 C 18,9 C 6,4 km/h (2 Bft) 92,00 %
01.04.2017 19:10 18,7 C 50 % 1007,4 hPa 0,0 l/m 5,9 km/h (2 Bft) O 80 0 min 0,000 mm 0,0 UV-I 14 W/m 8,1 C 18,7 C 11,3 km/h (2 Bft) 93,62 %
01.04.2017 19:12 18,7 C 51 % 1007,4 hPa 0,0 l/m 5,0 km/h (1 Bft) O 86 0 min 0,000 mm 0,0 UV-I 13 W/m 8,4 C 18,7 C 6,4 km/h (2 Bft) 95,74 %
01.04.2017 19:14 18,6 C 51 % 1007,4 hPa 0,0 l/m 5,6 km/h (1 Bft) O 90 0 min 0,000 mm 0,0 UV-I 12 W/m 8,3 C 18,6 C 6,4 km/h (2 Bft) 98,00 %
01.04.2017 19:16 18,4 C 51 % 1007,3 hPa 0,0 l/m 5,6 km/h (1 Bft) O 79 0 min 0,000 mm 0,0 UV-I 12 W/m 8,1 C 18,4 C 9,7 km/h (2 Bft) 97,87 %
01.04.2017 19:18 18,3 C 52 % 1007,3 hPa 0,0 l/m 5,1 km/h (1 Bft) O-NO 74 0 min 0,000 mm 0,0 UV-I 11 W/m 8,3 C 18,3 C 8,0 km/h (2 Bft) 100,00 %
01.04.2017 19:20 18,3 C 51 % 1007,3 hPa 0,0 l/m 4,9 km/h (1 Bft) O-NO 69 0 min 0,000 mm 0,0 UV-I 11 W/m 8,0 C 18,3 C 6,4 km/h (2 Bft) 92,31 %
01.04.2017 19:22 18,4 C 50 % 1007,3 hPa 0,0 l/m 3,7 km/h (1 Bft) O-NO 69 0 min 0,000 mm 0,0 UV-I 9 W/m 7,8 C 18,4 C 6,4 km/h (2 Bft) 91,84 %
01.04.2017 19:24 18,6 C 49 % 1007,3 hPa 0,0 l/m 3,7 km/h (1 Bft) O-NO 69 0 min 0,000 mm 0,0 UV-I 9 W/m 7,7 C 18,6 C 4,8 km/h (1 Bft) 100,00 %
01.04.2017 19:26 18,6 C 51 % 1007,4 hPa 0,0 l/m 2,6 km/h (1 Bft) O-NO 69 0 min 0,000 mm 0,0 UV-I 8 W/m 8,3 C 18,6 C 4,8 km/h (1 Bft) 93,62 %
01.04.2017 19:28 18,3 C 52 % 1007,4 hPa 0,0 l/m 2,0 km/h (1 Bft) O-NO 69 0 min 0,000 mm 0,0 UV-I 7 W/m 8,3 C 18,3 C 3,2 km/h (1 Bft) 96,00 %
01.04.2017 19:30 17,9 C 53 % 1007,5 hPa 0,0 l/m 2,0 km/h (1 Bft) O-NO 69 0 min 0,000 mm 0,0 UV-I 7 W/m 8,2 C 17,9 C 3,2 km/h (1 Bft) 94,00 %
01.04.2017 19:32 17,6 C 56 % 1007,4 hPa 0,0 l/m 1,9 km/h (1 Bft) O-NO 69 0 min 0,000 mm 0,0 UV-I 7 W/m 8,7 C 17,6 C 3,2 km/h (1 Bft) 100,00 %
01.04.2017 19:34 17,3 C 57 % 1007,5 hPa 0,0 l/m 2,2 km/h (1 Bft) O-NO 69 0 min 0,000 mm 0,0 UV-I 7 W/m 8,7 C 17,3 C 3,2 km/h (1 Bft) 97,37 %
01.04.2017 19:36 17,1 C 58 % 1007,5 hPa 0,0 l/m 2,2 km/h (1 Bft) O-NO 69 0 min 0,000 mm 0,0 UV-I 5 W/m 8,8 C 17,1 C 3,2 km/h (1 Bft) 95,74 %
01.04.2017 19:38 17,0 C 59 % 1007,5 hPa 0,0 l/m 1,8 km/h (1 Bft) O-NO 69 0 min 0,000 mm 0,0 UV-I 5 W/m 8,9 C 17,0 C 3,2 km/h (1 Bft) 93,62 %
01.04.2017 19:40 17,0 C 59 % 1007,4 hPa 0,0 l/m 2,1 km/h (1 Bft) O-NO 69 0 min 0,000 mm 0,0 UV-I 5 W/m 8,9 C 17,0 C 3,2 km/h (1 Bft) 95,74 %
01.04.2017 19:42 16,8 C 60 % 1007,5 hPa 0,0 l/m 2,5 km/h (1 Bft) O-NO 69 0 min 0,000 mm 0,0 UV-I 5 W/m 9,0 C 16,8 C 3,2 km/h (1 Bft) 100,00 %
01.04.2017 19:44 16,7 C 61 % 1007,5 hPa 0,0 l/m 2,4 km/h (1 Bft) O-NO 69 0 min 0,000 mm 0,0 UV-I 5 W/m 9,1 C 16,7 C 3,2 km/h (1 Bft) 97,87 %
01.04.2017 19:46 16,5 C 62 % 1007,4 hPa 0,0 l/m 2,9 km/h (1 Bft) O-NO 69 0 min 0,000 mm 0,0 UV-I 0 W/m 9,2 C 16,5 C 3,2 km/h (1 Bft) 97,87 %
01.04.2017 19:48 16,3 C 63 % 1007,4 hPa 0,0 l/m 2,6 km/h (1 Bft) O-NO 69 0 min 0,000 mm 0,0 UV-I 0 W/m 9,2 C 16,3 C 3,2 km/h (1 Bft) 97,87 %
01.04.2017 19:50 16,2 C 62 % 1007,5 hPa 0,0 l/m 3,0 km/h (1 Bft) O-NO 69 0 min 0,000 mm 0,0 UV-I 0 W/m 8,9 C 16,2 C 4,8 km/h (1 Bft) 100,00 %
01.04.2017 19:52 16,1 C 64 % 1007,5 hPa 0,0 l/m 3,8 km/h (1 Bft) O-NO 69 0 min 0,000 mm 0,0 UV-I 0 W/m 9,3 C 16,1 C 4,8 km/h (1 Bft) 96,00 %
01.04.2017 19:54 16,1 C 63 % 1007,5 hPa 0,0 l/m 4,2 km/h (1 Bft) O-NO 69 0 min 0,000 mm 0,0 UV-I 0 W/m 9,1 C 16,1 C 6,4 km/h (2 Bft) 100,00 %
01.04.2017 19:56 16,0 C 63 % 1007,4 hPa 0,0 l/m 3,0 km/h (1 Bft) O-NO 69 0 min 0,000 mm 0,0 UV-I 0 W/m 9,0 C 16,0 C 4,8 km/h (1 Bft) 98,39 %
01.04.2017 19:58 15,9 C 63 % 1007,5 hPa 0,0 l/m 3,2 km/h (1 Bft) O-NO 69 0 min 0,000 mm 0,0 UV-I 0 W/m 8,9 C 15,9 C 4,8 km/h (1 Bft) 95,74 %
01.04.2017 20:00 16,0 C 61 % 1007,5 hPa 0,0 l/m 2,4 km/h (1 Bft) O-NO 69 0 min 0,000 mm 0,0 UV-I 0 W/m 8,5 C 16,0 C 4,8 km/h (1 Bft) 95,74 %
01.04.2017 20:02 16,0 C 61 % 1007,5 hPa 0,0 l/m 2,8 km/h (1 Bft) O-NO 69 0 min 0,025 mm 0,0 UV-I 0 W/m 8,5 C 16,0 C 4,8 km/h (1 Bft) 98,00 %
01.04.2017 20:04 15,9 C 63 % 1007,6 hPa 0,0 l/m 3,5 km/h (1 Bft) O-NO 69 0 min 0,000 mm 0,0 UV-I 0 W/m 8,9 C 15,9 C 4,8 km/h (1 Bft) 97,87 %
01.04.2017 20:06 15,8 C 63 % 1007,6 hPa 0,0 l/m 4,1 km/h (1 Bft) O-NO 69 0 min 0,000 mm 0,0 UV-I 0 W/m 8,8 C 15,8 C 4,8 km/h (1 Bft) 93,62 %
01.04.2017 20:08 15,8 C 63 % 1007,5 hPa 0,0 l/m 3,8 km/h (1 Bft) O-NO 69 0 min 0,000 mm 0,0 UV-I 0 W/m 8,8 C 15,8 C 4,8 km/h (1 Bft) 93,62 %
01.04.2017 20:10 15,6 C 64 % 1007,6 hPa 0,0 l/m 3,5 km/h (1 Bft) O-NO 69 0 min 0,000 mm 0,0 UV-I 0 W/m 8,8 C 15,6 C 4,8 km/h (1 Bft) 88,00 %
01.04.2017 20:12 15,6 C 63 % 1007,6 hPa 0,0 l/m 2,7 km/h (1 Bft) O-NO 69 0 min 0,000 mm 0,0 UV-I 0 W/m 8,6 C 15,6 C 4,8 km/h (1 Bft) 100,00 %
01.04.2017 20:14 15,6 C 63 % 1007,6 hPa 0,0 l/m 3,1 km/h (1 Bft) O-NO 69 0 min 0,000 mm 0,0 UV-I 0 W/m 8,6 C 15,6 C 4,8 km/h (1 Bft) 100,00 %
01.04.2017 20:16 15,6 C 63 % 1007,6 hPa 0,0 l/m 2,8 km/h (1 Bft) O-NO 69 0 min 0,000 mm 0,0 UV-I 0 W/m 8,6 C 15,6 C 4,8 km/h (1 Bft) 100,00 %
01.04.2017 20:18 15,6 C 63 % 1007,6 hPa 0,0 l/m 2,9 km/h (1 Bft) O-NO 69 0 min 0,000 mm 0,0 UV-I 0 W/m 8,6 C 15,6 C 4,8 km/h (1 Bft) 91,49 %
01.04.2017 20:20 15,5 C 63 % 1007,6 hPa 0,0 l/m 2,8 km/h (1 Bft) O-NO 69 0 min 0,000 mm 0,0 UV-I 0 W/m 8,5 C 15,5 C 4,8 km/h (1 Bft) 97,87 %
01.04.2017 20:22 15,5 C 63 % 1007,6 hPa 0,0 l/m 2,6 km/h (1 Bft) O-NO 69 0 min 0,000 mm 0,0 UV-I 0 W/m 8,5 C 15,5 C 4,8 km/h (1 Bft) 95,74 %
01.04.2017 20:24 15,4 C 63 % 1007,7 hPa 0,0 l/m 2,0 km/h (1 Bft) O-NO 69 0 min 0,000 mm 0,0 UV-I 0 W/m 8,4 C 15,4 C 3,2 km/h (1 Bft) 100,00 %
01.04.2017 20:26 15,3 C 64 % 1007,7 hPa 0,0 l/m 2,0 km/h (1 Bft) O-NO 69 0 min 0,000 mm 0,0 UV-I 0 W/m 8,5 C 15,3 C 3,2 km/h (1 Bft) 97,87 %
01.04.2017 20:28 15,2 C 66 % 1007,7 hPa 0,0 l/m 0,6 km/h (0 Bft) O-NO 69 0 min 0,000 mm 0,0 UV-I 0 W/m 8,9 C 15,2 C 1,6 km/h (1 Bft) 97,87 %
01.04.2017 20:30 15,1 C 66 % 1007,7 hPa 0,0 l/m 0,2 km/h (0 Bft) O-NO 69 0 min 0,000 mm 0,0 UV-I 0 W/m 8,8 C 15,1 C 1,6 km/h (1 Bft) 100,00 %
01.04.2017 20:32 14,9 C 66 % 1007,8 hPa 0,0 l/m 0,0 km/h (0 Bft) O-NO 69 0 min 0,000 mm 0,0 UV-I 0 W/m 8,6 C 14,9 C 0,0 km/h (0 Bft) 100,00 %
01.04.2017 20:34 14,9 C 66 % 1007,8 hPa 0,0 l/m 0,0 km/h (0 Bft) O-NO 69 0 min 0,000 mm 0,0 UV-I 0 W/m 8,6 C 14,9 C 0,0 km/h (0 Bft) 97,87 %
01.04.2017 20:36 14,9 C 65 % 1007,8 hPa 0,0 l/m 1,0 km/h (0 Bft) O-NO 69 0 min 0,000 mm 0,0 UV-I 0 W/m 8,4 C 14,9 C 3,2 km/h (1 Bft) 97,87 %
01.04.2017 20:38 14,8 C 66 % 1007,8 hPa 0,0 l/m 1,8 km/h (1 Bft) O-NO 69 0 min 0,000 mm 0,0 UV-I 0 W/m 8,5 C 14,8 C 3,2 km/h (1 Bft) 97,92 %
01.04.2017 20:40 14,8 C 66 % 1007,9 hPa 0,0 l/m 2,3 km/h (1 Bft) O-NO 69 0 min 0,000 mm 0,0 UV-I 0 W/m 8,5 C 14,8 C 3,2 km/h (1 Bft) 97,87 %
01.04.2017 20:42 14,7 C 66 % 1007,8 hPa 0,0 l/m 2,3 km/h (1 Bft) O-NO 69 0 min 0,000 mm 0,0 UV-I 0 W/m 8,4 C 14,7 C 3,2 km/h (1 Bft) 100,00 %
01.04.2017 20:44 14,7 C 66 % 1007,9 hPa 0,0 l/m 3,8 km/h (1 Bft) O 88 0 min 0,000 mm 0,0 UV-I 0 W/m 8,4 C 14,7 C 4,8 km/h (1 Bft) 93,62 %
01.04.2017 20:46 14,5 C 67 % 1007,9 hPa 0,0 l/m 4,8 km/h (1 Bft) SO 132 0 min 0,000 mm 0,0 UV-I 0 W/m 8,4 C 14,5 C 6,4 km/h (2 Bft) 100,00 %
01.04.2017 20:48 14,4 C 67 % 1007,9 hPa 0,0 l/m 5,0 km/h (1 Bft) S-SO 157 0 min 0,000 mm 0,0 UV-I 0 W/m 8,4 C 14,4 C 8,0 km/h (2 Bft) 97,87 %
01.04.2017 20:50 14,3 C 68 % 1007,9 hPa 0,0 l/m 5,5 km/h (1 Bft) S-SO 158 0 min 0,000 mm 0,0 UV-I 0 W/m 8,5 C 14,3 C 8,0 km/h (2 Bft) 91,49 %
01.04.2017 20:52 14,2 C 68 % 1007,9 hPa 0,0 l/m 3,8 km/h (1 Bft) S-SO 159 0 min 0,000 mm 0,0 UV-I 0 W/m 8,4 C 14,2 C 8,0 km/h (2 Bft) 93,62 %
01.04.2017 20:54 14,1 C 69 % 1007,9 hPa 0,0 l/m 1,3 km/h (1 Bft) S-SO 159 0 min 0,000 mm 0,0 UV-I 0 W/m 8,5 C 14,1 C 3,2 km/h (1 Bft) 93,62 %
01.04.2017 20:56 14,0 C 69 % 1007,9 hPa 0,0 l/m 1,0 km/h (0 Bft) S-SO 159 0 min 0,000 mm 0,0 UV-I 0 W/m 8,4 C 14,0 C 3,2 km/h (1 Bft) 89,47 %
01.04.2017 20:58 13,9 C 68 % 1008,0 hPa 0,0 l/m 3,4 km/h (1 Bft) S-SO 158 0 min 0,000 mm 0,0 UV-I 0 W/m 8,1 C 13,9 C 8,0 km/h (2 Bft) 89,36 %
01.04.2017 21:00 14,1 C 68 % 1008,0 hPa 0,0 l/m 4,5 km/h (1 Bft) SO 137 0 min 0,000 mm 0,0 UV-I 0 W/m 8,3 C 14,1 C 6,4 km/h (2 Bft) 93,62 %
01.04.2017 21:02 14,1 C 69 % 1007,9 hPa 0,0 l/m 5,0 km/h (1 Bft) SO 137 0 min 0,025 mm 0,0 UV-I 0 W/m 8,5 C 14,1 C 6,4 km/h (2 Bft) 92,00 %
01.04.2017 21:04 13,9 C 69 % 1007,9 hPa 0,0 l/m 4,5 km/h (1 Bft) SO 138 0 min 0,000 mm 0,0 UV-I 0 W/m 8,3 C 13,9 C 6,4 km/h (2 Bft) 91,49 %
01.04.2017 21:06 14,1 C 68 % 1008,0 hPa 0,0 l/m 3,5 km/h (1 Bft) SO 140 0 min 0,000 mm 0,0 UV-I 0 W/m 8,3 C 14,1 C 6,4 km/h (2 Bft) 93,62 %
01.04.2017 21:08 14,2 C 67 % 1008,0 hPa 0,0 l/m 0,9 km/h (0 Bft) SO 140 0 min 0,000 mm 0,0 UV-I 0 W/m 8,2 C 14,2 C 3,2 km/h (1 Bft) 91,49 %
01.04.2017 21:10 14,1 C 68 % 1008,0 hPa 0,0 l/m 2,6 km/h (1 Bft) SO 140 0 min 0,000 mm 0,0 UV-I 0 W/m 8,3 C 14,1 C 4,8 km/h (1 Bft) 91,49 %
01.04.2017 21:12 13,9 C 68 % 1008,0 hPa 0,0 l/m 4,2 km/h (1 Bft) S 173 0 min 0,000 mm 0,0 UV-I 0 W/m 8,1 C 13,9 C 6,4 km/h (2 Bft) 91,49 %
01.04.2017 21:14 13,8 C 68 % 1008,0 hPa 0,0 l/m 3,6 km/h (1 Bft) S 178 0 min 0,000 mm 0,0 UV-I 0 W/m 8,0 C 13,8 C 4,8 km/h (1 Bft) 96,00 %
01.04.2017 21:16 13,7 C 69 % 1008,0 hPa 0,0 l/m 5,0 km/h (1 Bft) S 171 0 min 0,000 mm 0,0 UV-I 0 W/m 8,1 C 13,7 C 6,4 km/h (2 Bft) 93,62 %
01.04.2017 21:18 13,8 C 69 % 1008,1 hPa 0,0 l/m 3,6 km/h (1 Bft) S-SO 163 0 min 0,000 mm 0,0 UV-I 0 W/m 8,2 C 13,8 C 8,0 km/h (2 Bft) 93,62 %
01.04.2017 21:20 13,8 C 69 % 1008,1 hPa 0,0 l/m 3,3 km/h (1 Bft) S-SO 163 0 min 0,000 mm 0,0 UV-I 0 W/m 8,2 C 13,8 C 6,4 km/h (2 Bft) 95,74 %
01.04.2017 21:22 13,9 C 68 % 1008,1 hPa 0,0 l/m 2,5 km/h (1 Bft) S 172 0 min 0,000 mm 0,0 UV-I 0 W/m 8,1 C 13,9 C 8,0 km/h (2 Bft) 95,83 %
01.04.2017 21:24 13,8 C 69 % 1008,1 hPa 0,0 l/m 2,3 km/h (1 Bft) S 172 0 min 0,000 mm 0,0 UV-I 0 W/m 8,2 C 13,8 C 3,2 km/h (1 Bft) 94,29 %
01.04.2017 21:26 13,7 C 69 % 1008,1 hPa 0,0 l/m 1,5 km/h (1 Bft) S 172 0 min 0,000 mm 0,0 UV-I 0 W/m 8,1 C 13,7 C 3,2 km/h (1 Bft) 91,49 %
01.04.2017 21:28 13,6 C 70 % 1008,1 hPa 0,0 l/m 1,8 km/h (1 Bft) S 172 0 min 0,000 mm 0,0 UV-I 0 W/m 8,2 C 13,6 C 3,2 km/h (1 Bft) 97,87 %
01.04.2017 21:30 13,5 C 70 % 1008,1 hPa 0,0 l/m 2,5 km/h (1 Bft) S 172 0 min 0,000 mm 0,0 UV-I 0 W/m 8,1 C 13,5 C 3,2 km/h (1 Bft) 95,74 %
01.04.2017 21:32 13,5 C 70 % 1008,1 hPa 0,0 l/m 3,3 km/h (1 Bft) S 173 0 min 0,000 mm 0,0 UV-I 0 W/m 8,1 C 13,5 C 4,8 km/h (1 Bft) 96,00 %
01.04.2017 21:34 13,5 C 70 % 1008,2 hPa 0,0 l/m 2,0 km/h (1 Bft) S 172 0 min 0,000 mm 0,0 UV-I 0 W/m 8,1 C 13,5 C 3,2 km/h (1 Bft) 95,74 %
01.04.2017 21:36 13,4 C 70 % 1008,2 hPa 0,0 l/m 1,6 km/h (1 Bft) S 173 0 min 0,000 mm 0,0 UV-I 0 W/m 8,0 C 13,4 C 3,2 km/h (1 Bft) 92,00 %
01.04.2017 21:38 13,4 C 70 % 1008,2 hPa 0,0 l/m 3,5 km/h (1 Bft) S 173 0 min 0,000 mm 0,0 UV-I 0 W/m 8,0 C 13,4 C 8,0 km/h (2 Bft) 94,00 %
01.04.2017 21:40 13,4 C 71 % 1008,2 hPa 0,0 l/m 2,8 km/h (1 Bft) S 173 0 min 0,000 mm 0,0 UV-I 0 W/m 8,3 C 13,4 C 4,8 km/h (1 Bft) 95,74 %
01.04.2017 21:42 13,5 C 71 % 1008,2 hPa 0,0 l/m 3,9 km/h (1 Bft) S-SO 167 0 min 0,000 mm 0,0 UV-I 0 W/m 8,3 C 13,5 C 8,0 km/h (2 Bft) 92,11 %
01.04.2017 21:44 13,7 C 70 % 1008,2 hPa 0,0 l/m 5,0 km/h (1 Bft) S 171 0 min 0,000 mm 0,0 UV-I 0 W/m 8,3 C 13,7 C 8,0 km/h (2 Bft) 93,62 %
01.04.2017 21:46 13,6 C 70 % 1008,2 hPa 0,0 l/m 4,2 km/h (1 Bft) S 186 0 min 0,000 mm 0,0 UV-I 0 W/m 8,2 C 13,6 C 6,4 km/h (2 Bft) 96,00 %
01.04.2017 21:48 13,7 C 70 % 1008,3 hPa 0,0 l/m 4,6 km/h (1 Bft) S 178 0 min 0,000 mm 0,0 UV-I 0 W/m 8,3 C 13,7 C 6,4 km/h (2 Bft) 95,74 %
01.04.2017 21:50 13,7 C 70 % 1008,2 hPa 0,0 l/m 3,8 km/h (1 Bft) S 182 0 min 0,000 mm 0,0 UV-I 0 W/m 8,3 C 13,7 C 6,4 km/h (2 Bft) 95,74 %
01.04.2017 21:52 13,7 C 69 % 1008,3 hPa 0,0 l/m 3,5 km/h (1 Bft) S 180 0 min 0,000 mm 0,0 UV-I 0 W/m 8,1 C 13,7 C 4,8 km/h (1 Bft) 97,87 %
01.04.2017 21:54 13,8 C 69 % 1008,3 hPa 0,0 l/m 4,1 km/h (1 Bft) S 173 0 min 0,000 mm 0,0 UV-I 0 W/m 8,2 C 13,8 C 6,4 km/h (2 Bft) 93,62 %
01.04.2017 21:56 13,9 C 68 % 1008,3 hPa 0,0 l/m 3,7 km/h (1 Bft) S 175 0 min 0,000 mm 0,0 UV-I 0 W/m 8,1 C 13,9 C 4,8 km/h (1 Bft) 93,75 %
01.04.2017 21:58 13,9 C 69 % 1008,3 hPa 0,0 l/m 3,9 km/h (1 Bft) S 176 0 min 0,000 mm 0,0 UV-I 0 W/m 8,3 C 13,9 C 4,8 km/h (1 Bft) 98,00 %
01.04.2017 22:00 13,8 C 69 % 1008,4 hPa 0,0 l/m 3,2 km/h (1 Bft) S 180 0 min 0,025 mm 0,0 UV-I 0 W/m 8,2 C 13,8 C 6,4 km/h (2 Bft) 94,74 %
01.04.2017 22:05 13,7 C 69 % 1008,4 hPa 0,0 l/m 3,2 km/h (1 Bft) S 180 0 min 0,000 mm 0,0 UV-I 0 W/m 8,1 C 13,7 C 6,4 km/h (2 Bft) 94,74 %
01.04.2017 22:10 13,7 C 68 % 1008,5 hPa 0,0 l/m 4,8 km/h (1 Bft) S 180 0 min 0,000 mm 0,0 UV-I 0 W/m 7,9 C 13,7 C 6,4 km/h (2 Bft) 97,37 %
01.04.2017 22:15 13,7 C 68 % 1008,4 hPa 0,0 l/m 4,8 km/h (1 Bft) S 180 0 min 0,000 mm 0,0 UV-I 0 W/m 7,9 C 13,7 C 6,4 km/h (2 Bft) 97,37 %
01.04.2017 22:16 13,6 C 69 % 1008,4 hPa 0,0 l/m 4,8 km/h (1 Bft) S 181 0 min 0,001 mm 0,0 UV-I 0 W/m 8,0 C 13,6 C 4,8 km/h (1 Bft) 97,44 %
01.04.2017 22:18 13,5 C 69 % 1008,4 hPa 0,0 l/m 5,6 km/h (1 Bft) S 182 0 min 0,000 mm 0,0 UV-I 0 W/m 7,9 C 13,5 C 6,4 km/h (2 Bft) 98,11 %
01.04.2017 22:20 13,3 C 69 % 1008,5 hPa 0,0 l/m 5,7 km/h (1 Bft) S 190 0 min 0,000 mm 0,0 UV-I 0 W/m 7,7 C 13,3 C 6,4 km/h (2 Bft) 97,73 %
01.04.2017 22:22 13,2 C 70 % 1008,4 hPa 0,0 l/m 4,8 km/h (1 Bft) S 190 0 min 0,000 mm 0,0 UV-I 0 W/m 7,9 C 13,2 C 6,4 km/h (2 Bft) 97,37 %
01.04.2017 22:24 13,1 C 70 % 1008,5 hPa 0,0 l/m 4,8 km/h (1 Bft) S-SW 192 0 min 0,000 mm 0,0 UV-I 0 W/m 7,8 C 13,1 C 6,4 km/h (2 Bft) 98,31 %
01.04.2017 22:26 13,0 C 71 % 1008,5 hPa 0,0 l/m 5,9 km/h (2 Bft) S-SW 193 0 min 0,000 mm 0,0 UV-I 0 W/m 7,9 C 13,0 C 8,0 km/h (2 Bft) 100,00 %
01.04.2017 22:28 13,1 C 71 % 1008,5 hPa 0,0 l/m 5,3 km/h (1 Bft) S-SW 194 0 min 0,000 mm 0,0 UV-I 0 W/m 8,0 C 13,1 C 6,4 km/h (2 Bft) 98,11 %
01.04.2017 22:30 13,1 C 71 % 1008,6 hPa 0,0 l/m 5,4 km/h (1 Bft) S-SW 194 0 min 0,000 mm 0,0 UV-I 0 W/m 8,0 C 13,1 C 6,4 km/h (2 Bft) 97,37 %
01.04.2017 22:32 13,1 C 71 % 1008,6 hPa 0,0 l/m 5,4 km/h (1 Bft) S-SW 194 0 min 0,000 mm 0,0 UV-I 0 W/m 8,0 C 13,1 C 6,4 km/h (2 Bft) 100,00 %
01.04.2017 22:34 13,1 C 71 % 1008,6 hPa 0,0 l/m 5,8 km/h (2 Bft) S-SW 194 0 min 0,000 mm 0,0 UV-I 0 W/m 8,0 C 13,1 C 6,4 km/h (2 Bft) 100,00 %
01.04.2017 22:36 13,2 C 70 % 1008,7 hPa 0,0 l/m 5,1 km/h (1 Bft) S-SW 194 0 min 0,000 mm 0,0 UV-I 0 W/m 7,9 C 13,2 C 6,4 km/h (2 Bft) 100,00 %
01.04.2017 22:38 13,3 C 69 % 1008,7 hPa 0,0 l/m 5,1 km/h (1 Bft) S-SW 198 0 min 0,000 mm 0,0 UV-I 0 W/m 7,7 C 13,3 C 6,4 km/h (2 Bft) 97,87 %
01.04.2017 22:40 13,3 C 69 % 1008,7 hPa 0,0 l/m 5,7 km/h (1 Bft) S-SW 206 0 min 0,000 mm 0,0 UV-I 0 W/m 7,7 C 13,3 C 8,0 km/h (2 Bft) 97,44 %
01.04.2017 22:42 13,3 C 68 % 1008,7 hPa 0,0 l/m 6,7 km/h (2 Bft) S-SW 205 0 min 0,000 mm 0,0 UV-I 0 W/m 7,5 C 13,1 C 9,7 km/h (2 Bft) 100,00 %
01.04.2017 22:44 13,3 C 68 % 1008,7 hPa 0,0 l/m 5,5 km/h (1 Bft) S-SW 205 0 min 0,000 mm 0,0 UV-I 0 W/m 7,5 C 13,3 C 6,4 km/h (2 Bft) 97,56 %
01.04.2017 22:46 13,3 C 67 % 1008,7 hPa 0,0 l/m 5,1 km/h (1 Bft) S-SW 205 0 min 0,000 mm 0,0 UV-I 0 W/m 7,3 C 13,3 C 6,4 km/h (2 Bft) 98,08 %
01.04.2017 22:48 13,3 C 67 % 1008,7 hPa 0,0 l/m 4,9 km/h (1 Bft) S-SW 205 0 min 0,000 mm 0,0 UV-I 0 W/m 7,3 C 13,3 C 6,4 km/h (2 Bft) 100,00 %
01.04.2017 22:50 13,3 C 66 % 1008,7 hPa 0,0 l/m 4,5 km/h (1 Bft) S-SW 205 0 min 0,000 mm 0,0 UV-I 0 W/m 7,1 C 13,3 C 6,4 km/h (2 Bft) 96,23 %
01.04.2017 22:52 13,3 C 66 % 1008,8 hPa 0,0 l/m 4,3 km/h (1 Bft) S-SW 205 0 min 0,000 mm 0,0 UV-I 0 W/m 7,1 C 13,3 C 4,8 km/h (1 Bft) 100,00 %
01.04.2017 22:54 13,3 C 66 % 1008,8 hPa 0,0 l/m 4,5 km/h (1 Bft) S-SW 208 0 min 0,000 mm 0,0 UV-I 0 W/m 7,1 C 13,3 C 6,4 km/h (2 Bft) 98,11 %
01.04.2017 22:56 13,2 C 65 % 1008,8 hPa 0,0 l/m 4,1 km/h (1 Bft) S-SW 208 0 min 0,000 mm 0,0 UV-I 0 W/m 6,8 C 13,2 C 4,8 km/h (1 Bft) 97,56 %
01.04.2017 22:58 13,2 C 65 % 1008,9 hPa 0,0 l/m 5,2 km/h (1 Bft) S-SW 209 0 min 0,000 mm 0,0 UV-I 0 W/m 6,8 C 13,2 C 6,4 km/h (2 Bft) 96,00 %
01.04.2017 23:00 13,2 C 64 % 1008,9 hPa 0,0 l/m 6,0 km/h (2 Bft) S-SW 209 0 min 0,000 mm 0,0 UV-I 0 W/m 6,5 C 13,2 C 8,0 km/h (2 Bft) 100,00 %
01.04.2017 23:02 13,2 C 63 % 1008,9 hPa 0,0 l/m 6,1 km/h (2 Bft) S-SW 209 0 min 0,025 mm 0,0 UV-I 0 W/m 6,3 C 13,2 C 8,0 km/h (2 Bft) 95,74 %
01.04.2017 23:04 13,3 C 63 % 1008,9 hPa 0,0 l/m 5,3 km/h (1 Bft) S-SW 209 0 min 0,000 mm 0,0 UV-I 0 W/m 6,4 C 13,3 C 8,0 km/h (2 Bft) 97,56 %
01.04.2017 23:06 13,3 C 63 % 1008,9 hPa 0,0 l/m 4,2 km/h (1 Bft) S-SW 209 0 min 0,000 mm 0,0 UV-I 0 W/m 6,4 C 13,3 C 6,4 km/h (2 Bft) 96,00 %
01.04.2017 23:08 13,3 C 62 % 1008,9 hPa 0,0 l/m 3,9 km/h (1 Bft) S-SW 209 0 min 0,000 mm 0,0 UV-I 0 W/m 6,2 C 13,3 C 6,4 km/h (2 Bft) 97,87 %
01.04.2017 23:10 13,3 C 62 % 1008,9 hPa 0,0 l/m 4,5 km/h (1 Bft) S-SW 209 0 min 0,000 mm 0,0 UV-I 0 W/m 6,2 C 13,3 C 6,4 km/h (2 Bft) 93,62 %
01.04.2017 23:12 13,3 C 61 % 1009,0 hPa 0,0 l/m 5,2 km/h (1 Bft) S-SW 209 0 min 0,000 mm 0,0 UV-I 0 W/m 5,9 C 13,3 C 6,4 km/h (2 Bft) 88,89 %
01.04.2017 23:14 13,2 C 62 % 1009,0 hPa 0,0 l/m 5,1 km/h (1 Bft) S-SW 207 0 min 0,000 mm 0,0 UV-I 0 W/m 6,1 C 13,2 C 8,0 km/h (2 Bft) 95,52 %
01.04.2017 23:16 13,2 C 62 % 1009,0 hPa 0,0 l/m 5,2 km/h (1 Bft) S-SW 207 0 min 0,000 mm 0,0 UV-I 0 W/m 6,1 C 13,2 C 6,4 km/h (2 Bft) 98,00 %
01.04.2017 23:18 13,1 C 62 % 1009,0 hPa 0,0 l/m 6,1 km/h (2 Bft) S-SW 207 0 min 0,000 mm 0,0 UV-I 0 W/m 6,0 C 13,1 C 8,0 km/h (2 Bft) 97,56 %
01.04.2017 23:20 13,0 C 62 % 1009,0 hPa 0,0 l/m 4,4 km/h (1 Bft) S-SW 206 0 min 0,000 mm 0,0 UV-I 0 W/m 5,9 C 13,0 C 6,4 km/h (2 Bft) 98,00 %
01.04.2017 23:22 12,9 C 63 % 1009,0 hPa 0,0 l/m 3,3 km/h (1 Bft) S 173 0 min 0,000 mm 0,0 UV-I 0 W/m 6,0 C 12,9 C 6,4 km/h (2 Bft) 95,83 %
01.04.2017 23:24 13,0 C 61 % 1009,0 hPa 0,0 l/m 5,1 km/h (1 Bft) S-SO 165 0 min 0,000 mm 0,0 UV-I 0 W/m 5,7 C 13,0 C 8,0 km/h (2 Bft) 97,37 %
01.04.2017 23:26 13,2 C 58 % 1009,0 hPa 0,0 l/m 4,9 km/h (1 Bft) S 187 0 min 0,000 mm 0,0 UV-I 0 W/m 5,1 C 13,2 C 8,0 km/h (2 Bft) 98,11 %
01.04.2017 23:28 13,5 C 56 % 1009,0 hPa 0,0 l/m 4,0 km/h (1 Bft) S 180 0 min 0,000 mm 0,0 UV-I 0 W/m 4,9 C 13,5 C 8,0 km/h (2 Bft) 96,00 %
01.04.2017 23:30 13,8 C 55 % 1009,0 hPa 0,0 l/m 4,4 km/h (1 Bft) S 173 0 min 0,000 mm 0,0 UV-I 0 W/m 4,9 C 13,8 C 8,0 km/h (2 Bft) 100,00 %
01.04.2017 23:32 14,0 C 53 % 1009,0 hPa 0,0 l/m 4,9 km/h (1 Bft) S 175 0 min 0,000 mm 0,0 UV-I 0 W/m 4,6 C 14,0 C 8,0 km/h (2 Bft) 97,56 %
01.04.2017 23:34 14,3 C 51 % 1009,1 hPa 0,0 l/m 6,0 km/h (2 Bft) S-SO 167 0 min 0,000 mm 0,0 UV-I 0 W/m 4,3 C 14,3 C 11,3 km/h (2 Bft) 94,64 %
01.04.2017 23:36 14,6 C 50 % 1009,0 hPa 0,0 l/m 5,2 km/h (1 Bft) S 175 0 min 0,000 mm 0,0 UV-I 0 W/m 4,3 C 14,6 C 9,7 km/h (2 Bft) 94,00 %
01.04.2017 23:38 14,7 C 49 % 1009,1 hPa 0,0 l/m 5,4 km/h (1 Bft) S 182 0 min 0,000 mm 0,0 UV-I 0 W/m 4,1 C 14,7 C 9,7 km/h (2 Bft) 97,37 %
01.04.2017 23:40 14,7 C 49 % 1009,1 hPa 0,0 l/m 4,4 km/h (1 Bft) S 184 0 min 0,000 mm 0,0 UV-I 0 W/m 4,1 C 14,7 C 6,4 km/h (2 Bft) 94,34 %
01.04.2017 23:42 14,7 C 49 % 1009,1 hPa 0,0 l/m 5,1 km/h (1 Bft) S-SO 162 0 min 0,000 mm 0,0 UV-I 0 W/m 4,1 C 14,7 C 8,0 km/h (2 Bft) 100,00 %
01.04.2017 23:44 14,7 C 48 % 1009,1 hPa 0,0 l/m 4,6 km/h (1 Bft) S-SW 194 0 min 0,000 mm 0,0 UV-I 0 W/m 3,8 C 14,7 C 8,0 km/h (2 Bft) 98,53 %
01.04.2017 23:46 14,7 C 49 % 1009,1 hPa 0,0 l/m 4,1 km/h (1 Bft) S-SO 163 0 min 0,000 mm 0,0 UV-I 0 W/m 4,1 C 14,7 C 8,0 km/h (2 Bft) 95,12 %
01.04.2017 23:48 14,6 C 49 % 1009,1 hPa 0,0 l/m 4,7 km/h (1 Bft) S 188 0 min 0,000 mm 0,0 UV-I 0 W/m 4,0 C 14,6 C 9,7 km/h (2 Bft) 97,56 %
01.04.2017 23:50 14,5 C 48 % 1009,1 hPa 0,0 l/m 4,7 km/h (1 Bft) S-SO 164 0 min 0,000 mm 0,0 UV-I 0 W/m 3,6 C 14,5 C 9,7 km/h (2 Bft) 96,00 %
01.04.2017 23:52 14,7 C 47 % 1009,1 hPa 0,0 l/m 5,4 km/h (1 Bft) S 176 0 min 0,000 mm 0,0 UV-I 0 W/m 3,5 C 14,7 C 9,7 km/h (2 Bft) 100,00 %
01.04.2017 23:54 14,8 C 47 % 1009,2 hPa 0,0 l/m 3,9 km/h (1 Bft) S-SW 200 0 min 0,000 mm 0,0 UV-I 0 W/m 3,6 C 14,8 C 9,7 km/h (2 Bft) 96,23 %
01.04.2017 23:56 14,8 C 47 % 1009,2 hPa 0,0 l/m 3,7 km/h (1 Bft) S 184 0 min 0,000 mm 0,0 UV-I 0 W/m 3,6 C 14,8 C 6,4 km/h (2 Bft) 97,62 %
01.04.2017 23:58 14,8 C 47 % 1009,2 hPa 0,0 l/m 4,4 km/h (1 Bft) S 186 0 min 0,000 mm 0,0 UV-I 0 W/m 3,6 C 14,8 C 8,0 km/h (2 Bft) 100,00 %
_ Min-Zeit 07:00 16:18 19:02 - 00:00 - - - - - - 23:52 07:00 00:00 00:02
Minimum _ 5,8 C 33 % 1007,3 hPa - 0,0 km/h (0 Bft) - - - - - - 3,5 C 5,8 C 0,0 km/h (0 Bft) 9,52 %
_ Max-Zeit 16:20 06:08 00:00 00:00 09:04 - - 15:03 13:02 12:36 12:54 13:36 16:22 09:04 00:08
Maximum _ 22,3 C 94 % 1013,1 hPa 0,0 l/m 11,5 km/h
O-NO (2 Bft)
- - 3 min 0,432 mm 3,4 UV-I 738 W/m 12,1 C 22,3 C 16,1 km/h
O-NO (3 Bft)
100,00 %
Durchschnitt _ 14,0 C 69 % 1010,0 hPa #0,0 l/m 3,5 km/h (1 Bft) S - #11:34 h #3,505 mm 2,1 UV-I 415 W/m 7,6 C 13,9 C 6,0 km/h (2 Bft) 96,44 %